Wetterdaten: Samstag, 11.03.2023
Datum Zeit Temp. Aussen Temp. o. S. Temp +5cm Feuchte Auss Luftdruck Regen Sonnenschein Regendauer Solar Windben Empfang
11.03.2023 00:00 1,3 C 1,1 C -1,1 C 94 % 1005,6 hPa 0,0 l/m 0 min 0 min 0 W/m 16,1 km/h (3 Bft) 100,00 %
11.03.2023 00:02 1,3 C 1,1 C -1,1 C 94 % 1005,6 hPa 0,0 l/m 0 min 0 min 0 W/m 16,1 km/h (3 Bft) 97,56 %
11.03.2023 00:04 1,3 C 1,1 C -1,1 C 94 % 1005,7 hPa 0,0 l/m 0 min 0 min 0 W/m 19,3 km/h (3 Bft) 100,00 %
11.03.2023 00:07 1,3 C 1,1 C -1,1 C 94 % 1005,7 hPa 0,0 l/m 0 min 0 min 0 W/m 22,5 km/h (4 Bft) 100,00 %
11.03.2023 00:08 1,3 C 1,1 C -1,1 C 94 % 1005,7 hPa 0,0 l/m 0 min 0 min 0 W/m 16,1 km/h (3 Bft) 95,65 %
11.03.2023 00:12 1,3 C 1,1 C -1,1 C 94 % 1005,7 hPa 0,0 l/m 0 min 0 min 0 W/m 16,1 km/h (3 Bft) 97,87 %
11.03.2023 00:14 1,3 C 1,1 C -1,1 C 94 % 1005,8 hPa 0,0 l/m 0 min 0 min 0 W/m 25,7 km/h (4 Bft) 95,65 %
11.03.2023 00:16 1,3 C 1,1 C -1,1 C 94 % 1005,8 hPa 0,0 l/m 0 min 0 min 0 W/m 22,5 km/h (4 Bft) 97,87 %
11.03.2023 00:18 1,3 C 1,1 C -1,1 C 94 % 1005,7 hPa 0,0 l/m 0 min 0 min 0 W/m 22,5 km/h (4 Bft) 97,96 %
11.03.2023 00:20 1,3 C 1,1 C -1,1 C 94 % 1005,7 hPa 0,0 l/m 0 min 0 min 0 W/m 16,1 km/h (3 Bft) 97,87 %
11.03.2023 00:22 1,4 C 1,1 C -1,1 C 94 % 1005,7 hPa 0,0 l/m 0 min 0 min 0 W/m 22,5 km/h (4 Bft) 97,87 %
11.03.2023 00:24 1,4 C 1,1 C -1,1 C 94 % 1005,8 hPa 0,0 l/m 0 min 0 min 0 W/m 19,3 km/h (3 Bft) 95,74 %
11.03.2023 00:26 1,4 C 1,1 C -1,1 C 94 % 1005,8 hPa 0,0 l/m 0 min 0 min 0 W/m 19,3 km/h (3 Bft) 97,87 %
11.03.2023 00:28 1,4 C 1,1 C -1,1 C 94 % 1005,9 hPa 0,0 l/m 0 min 0 min 0 W/m 16,1 km/h (3 Bft) 97,83 %
11.03.2023 00:30 1,4 C 1,1 C -1,1 C 94 % 1005,9 hPa 0,0 l/m 0 min 0 min 0 W/m 22,5 km/h (4 Bft) 97,87 %
11.03.2023 00:32 1,4 C 1,1 C -1,1 C 94 % 1006,0 hPa 0,0 l/m 0 min 0 min 0 W/m 19,3 km/h (3 Bft) 97,87 %
11.03.2023 00:34 1,4 C 1,1 C -1,1 C 94 % 1006,0 hPa 0,0 l/m 0 min 0 min 0 W/m 19,3 km/h (3 Bft) 97,87 %
11.03.2023 00:36 1,4 C 1,1 C -1,1 C 94 % 1006,0 hPa 0,0 l/m 0 min 0 min 0 W/m 12,9 km/h (3 Bft) 97,87 %
11.03.2023 00:38 1,4 C 1,1 C -1,1 C 94 % 1006,0 hPa 0,0 l/m 0 min 0 min 0 W/m 12,9 km/h (3 Bft) 95,92 %
11.03.2023 00:40 1,4 C 1,1 C -1,1 C 94 % 1006,2 hPa 0,0 l/m 0 min 0 min 0 W/m 25,7 km/h (4 Bft) 95,74 %
11.03.2023 00:42 1,4 C 1,1 C -1,1 C 93 % 1006,2 hPa 0,0 l/m 0 min 2 min 0 W/m 12,9 km/h (3 Bft) 100,00 %
11.03.2023 00:44 1,4 C 1,1 C -1,1 C 93 % 1006,3 hPa 0,0 l/m 0 min 0 min 0 W/m 22,5 km/h (4 Bft) 100,00 %
11.03.2023 00:46 1,4 C 1,1 C -1,1 C 93 % 1006,3 hPa 0,0 l/m 0 min 0 min 0 W/m 12,9 km/h (3 Bft) 97,87 %
11.03.2023 00:48 1,4 C 1,1 C -1,1 C 93 % 1006,5 hPa 0,0 l/m 0 min 0 min 0 W/m 22,5 km/h (4 Bft) 100,00 %
11.03.2023 00:50 1,4 C 1,1 C -1,1 C 93 % 1006,4 hPa 0,0 l/m 0 min 0 min 0 W/m 22,5 km/h (4 Bft) 100,00 %
11.03.2023 00:52 1,4 C 1,1 C -1,1 C 93 % 1006,5 hPa 0,0 l/m 0 min 0 min 0 W/m 16,1 km/h (3 Bft) 97,87 %
11.03.2023 00:54 1,4 C 1,1 C -1,1 C 93 % 1006,5 hPa 0,0 l/m 0 min 0 min 0 W/m 19,3 km/h (3 Bft) 100,00 %
11.03.2023 00:56 1,4 C 1,1 C -1,1 C 93 % 1006,5 hPa 0,0 l/m 0 min 0 min 0 W/m 29,0 km/h (5 Bft) 97,87 %
11.03.2023 00:58 1,4 C 1,1 C -1,1 C 93 % 1006,6 hPa 0,0 l/m 0 min 0 min 0 W/m 22,5 km/h (4 Bft) 100,00 %
11.03.2023 01:00 1,4 C 1,1 C -1,1 C 93 % 1006,6 hPa 0,0 l/m 0 min 0 min 0 W/m 19,3 km/h (3 Bft) 100,00 %
11.03.2023 01:02 1,3 C 1,1 C -1,1 C 93 % 1006,6 hPa 0,0 l/m 0 min 0 min 0 W/m 25,7 km/h (4 Bft) 97,87 %
11.03.2023 01:04 1,3 C 1,1 C -1,1 C 93 % 1006,7 hPa 0,0 l/m 0 min 0 min 0 W/m 16,1 km/h (3 Bft) 100,00 %
11.03.2023 01:06 1,3 C 1,1 C -1,1 C 93 % 1006,7 hPa 0,0 l/m 0 min 0 min 0 W/m 19,3 km/h (3 Bft) 100,00 %
11.03.2023 01:08 1,3 C 0,6 C -1,1 C 93 % 1006,7 hPa 0,0 l/m 0 min 0 min 0 W/m 29,0 km/h (5 Bft) 100,00 %
11.03.2023 01:10 1,3 C 0,6 C -1,1 C 93 % 1006,7 hPa 0,0 l/m 0 min 0 min 0 W/m 19,3 km/h (3 Bft) 100,00 %
11.03.2023 01:12 1,3 C 0,6 C -1,1 C 93 % 1006,7 hPa 0,0 l/m 0 min 0 min 0 W/m 12,9 km/h (3 Bft) 100,00 %
11.03.2023 01:14 1,3 C 0,6 C -1,1 C 93 % 1006,7 hPa 0,0 l/m 0 min 0 min 0 W/m 12,9 km/h (3 Bft) 97,87 %
11.03.2023 01:16 1,3 C 0,6 C -1,1 C 93 % 1006,7 hPa 0,0 l/m 0 min 0 min 0 W/m 12,9 km/h (3 Bft) 100,00 %
11.03.2023 01:18 1,3 C 0,6 C -1,1 C 93 % 1006,8 hPa 0,0 l/m 0 min 0 min 0 W/m 6,4 km/h (2 Bft) 100,00 %
11.03.2023 01:20 1,3 C 0,6 C -1,1 C 93 % 1006,8 hPa 0,0 l/m 0 min 0 min 0 W/m 9,7 km/h (2 Bft) 97,87 %
11.03.2023 01:22 1,3 C 0,6 C -1,1 C 93 % 1006,8 hPa 0,0 l/m 0 min 0 min 0 W/m 16,1 km/h (3 Bft) 100,00 %
11.03.2023 01:24 1,3 C 0,6 C -1,1 C 93 % 1006,8 hPa 0,0 l/m 0 min 0 min 0 W/m 12,9 km/h (3 Bft) 97,87 %
11.03.2023 01:26 1,3 C 1,1 C -1,1 C 93 % 1006,9 hPa 0,0 l/m 0 min 0 min 0 W/m 12,9 km/h (3 Bft) 97,87 %
11.03.2023 01:28 1,3 C 1,1 C -1,1 C 93 % 1006,9 hPa 0,0 l/m 0 min 0 min 0 W/m 12,9 km/h (3 Bft) 97,87 %
11.03.2023 01:30 1,3 C 1,1 C -1,1 C 93 % 1006,9 hPa 0,0 l/m 0 min 0 min 0 W/m 12,9 km/h (3 Bft) 95,74 %
11.03.2023 01:32 1,3 C 1,1 C -1,1 C 93 % 1006,9 hPa 0,0 l/m 0 min 0 min 0 W/m 12,9 km/h (3 Bft) 95,74 %
11.03.2023 01:34 1,3 C 1,1 C -1,1 C 93 % 1006,9 hPa 0,0 l/m 0 min 0 min 0 W/m 12,9 km/h (3 Bft) 97,83 %
11.03.2023 01:36 1,3 C 1,1 C -1,1 C 93 % 1006,9 hPa 0,0 l/m 0 min 0 min 0 W/m 16,1 km/h (3 Bft) 95,74 %
11.03.2023 01:38 1,3 C 1,1 C -1,1 C 93 % 1007,0 hPa 0,0 l/m 0 min 0 min 0 W/m 9,7 km/h (2 Bft) 95,74 %
11.03.2023 01:40 1,3 C 1,1 C -1,1 C 93 % 1007,0 hPa 0,0 l/m 0 min 0 min 0 W/m 6,4 km/h (2 Bft) 91,49 %
11.03.2023 01:42 1,3 C 1,1 C -1,1 C 93 % 1007,0 hPa 0,0 l/m 0 min 0 min 0 W/m 12,9 km/h (3 Bft) 95,74 %
11.03.2023 01:44 1,3 C 1,1 C -1,1 C 93 % 1007,0 hPa 0,0 l/m 0 min 0 min 0 W/m 6,4 km/h (2 Bft) 95,74 %
11.03.2023 01:46 1,3 C 0,6 C -1,1 C 93 % 1007,0 hPa 0,0 l/m 0 min 0 min 0 W/m 9,7 km/h (2 Bft) 95,74 %
11.03.2023 01:48 1,3 C 0,6 C -1,1 C 93 % 1007,0 hPa 0,0 l/m 0 min 0 min 0 W/m 12,9 km/h (3 Bft) 93,48 %
11.03.2023 01:50 1,3 C 0,6 C -1,1 C 93 % 1007,0 hPa 0,0 l/m 0 min 0 min 0 W/m 9,7 km/h (2 Bft) 93,75 %
11.03.2023 01:52 1,3 C 0,6 C -1,1 C 93 % 1007,1 hPa 0,0 l/m 0 min 0 min 0 W/m 6,4 km/h (2 Bft) 95,74 %
11.03.2023 01:54 1,3 C 0,6 C -1,1 C 93 % 1007,1 hPa 0,0 l/m 0 min 0 min 0 W/m 9,7 km/h (2 Bft) 95,74 %
11.03.2023 01:56 1,3 C 0,6 C -1,1 C 93 % 1007,1 hPa 0,0 l/m 0 min 0 min 0 W/m 9,7 km/h (2 Bft) 93,62 %
11.03.2023 01:58 1,3 C 0,6 C -1,1 C 93 % 1007,1 hPa 0,0 l/m 0 min 0 min 0 W/m 6,4 km/h (2 Bft) 93,62 %
11.03.2023 02:00 1,3 C 0,6 C -1,1 C 93 % 1007,1 hPa 0,0 l/m 0 min 0 min 0 W/m 6,4 km/h (2 Bft) 93,48 %
11.03.2023 02:02 1,2 C 0,6 C -1,1 C 93 % 1007,1 hPa 0,0 l/m 0 min 0 min 0 W/m 6,4 km/h (2 Bft) 91,49 %
11.03.2023 02:04 1,2 C 0,6 C -1,1 C 93 % 1007,1 hPa 0,0 l/m 0 min 0 min 0 W/m 6,4 km/h (2 Bft) 93,62 %
11.03.2023 02:06 1,2 C 0,6 C -1,1 C 93 % 1007,1 hPa 0,0 l/m 0 min 0 min 0 W/m 6,4 km/h (2 Bft) 93,22 %
11.03.2023 02:08 1,2 C 0,6 C -1,1 C 93 % 1007,2 hPa 0,0 l/m 0 min 0 min 0 W/m 3,2 km/h (1 Bft) 94,29 %
11.03.2023 02:10 1,1 C 0,6 C -1,1 C 93 % 1007,2 hPa 0,0 l/m 0 min 0 min 0 W/m 6,4 km/h (2 Bft) 93,75 %
11.03.2023 02:17 1,1 C 0,6 C -1,1 C 93 % 1007,2 hPa 0,0 l/m 0 min 0 min 0 W/m 3,2 km/h (1 Bft) 100,00 %
11.03.2023 02:20 1,0 C 0,0 C -1,1 C 93 % 1007,2 hPa 0,0 l/m 0 min 0 min 0 W/m 3,2 km/h (1 Bft) 96,61 %
11.03.2023 02:22 0,9 C 0,0 C -1,1 C 93 % 1007,2 hPa 0,0 l/m 0 min 0 min 0 W/m 3,2 km/h (1 Bft) 100,00 %
11.03.2023 02:24 0,9 C 0,0 C -1,1 C 93 % 1007,2 hPa 0,0 l/m 0 min 0 min 0 W/m 3,2 km/h (1 Bft) 97,83 %
11.03.2023 02:26 0,9 C 0,0 C -1,1 C 93 % 1007,2 hPa 0,0 l/m 0 min 0 min 0 W/m 3,2 km/h (1 Bft) 100,00 %
11.03.2023 02:28 0,9 C 0,0 C -1,1 C 93 % 1007,3 hPa 0,0 l/m 0 min 0 min 0 W/m 9,7 km/h (2 Bft) 97,87 %
11.03.2023 02:30 0,8 C 0,0 C -1,1 C 93 % 1007,3 hPa 0,0 l/m 0 min 0 min 0 W/m 0,0 km/h (0 Bft) 100,00 %
11.03.2023 02:32 0,8 C 0,0 C -1,7 C 93 % 1007,3 hPa 0,0 l/m 0 min 0 min 0 W/m 3,2 km/h (1 Bft) 100,00 %
11.03.2023 02:34 0,8 C 0,0 C -1,7 C 93 % 1007,4 hPa 0,0 l/m 0 min 0 min 0 W/m 3,2 km/h (1 Bft) 95,74 %
11.03.2023 02:36 0,8 C 0,0 C -1,7 C 93 % 1007,4 hPa 0,0 l/m 0 min 0 min 0 W/m 6,4 km/h (2 Bft) 100,00 %
11.03.2023 02:38 0,8 C 0,0 C -1,7 C 93 % 1007,4 hPa 0,0 l/m 0 min 0 min 0 W/m 6,4 km/h (2 Bft) 97,83 %
11.03.2023 02:40 0,7 C 0,0 C -1,7 C 93 % 1007,4 hPa 0,0 l/m 0 min 0 min 0 W/m 6,4 km/h (2 Bft) 100,00 %
11.03.2023 02:42 0,7 C 0,0 C -1,7 C 93 % 1007,5 hPa 0,0 l/m 0 min 0 min 0 W/m 6,4 km/h (2 Bft) 100,00 %
11.03.2023 02:44 0,6 C 0,0 C -1,7 C 93 % 1007,5 hPa 0,0 l/m 0 min 0 min 0 W/m 6,4 km/h (2 Bft) 100,00 %
11.03.2023 02:46 0,6 C 0,0 C -1,7 C 93 % 1007,5 hPa 0,0 l/m 0 min 0 min 0 W/m 3,2 km/h (1 Bft) 97,87 %
11.03.2023 02:48 0,6 C 0,0 C -1,7 C 93 % 1007,5 hPa 0,0 l/m 0 min 0 min 0 W/m 6,4 km/h (2 Bft) 100,00 %
11.03.2023 02:50 0,6 C 0,0 C -1,7 C 93 % 1007,5 hPa 0,0 l/m 0 min 0 min 0 W/m 6,4 km/h (2 Bft) 100,00 %
11.03.2023 02:52 0,6 C 0,0 C -1,7 C 93 % 1007,6 hPa 0,0 l/m 0 min 0 min 0 W/m 6,4 km/h (2 Bft) 100,00 %
11.03.2023 02:54 0,6 C 0,0 C -1,7 C 93 % 1007,6 hPa 0,0 l/m 0 min 0 min 0 W/m 12,9 km/h (3 Bft) 100,00 %
11.03.2023 02:56 0,6 C 0,0 C -1,7 C 93 % 1007,6 hPa 0,0 l/m 0 min 0 min 0 W/m 6,4 km/h (2 Bft) 100,00 %
11.03.2023 02:58 0,6 C 0,0 C -1,7 C 93 % 1007,7 hPa 0,0 l/m 0 min 0 min 0 W/m 12,9 km/h (3 Bft) 97,87 %
11.03.2023 03:00 0,6 C 0,0 C -1,7 C 93 % 1007,7 hPa 0,0 l/m 0 min 0 min 0 W/m 6,4 km/h (2 Bft) 100,00 %
11.03.2023 03:02 0,6 C 0,0 C -1,7 C 93 % 1007,7 hPa 0,0 l/m 0 min 0 min 0 W/m 6,4 km/h (2 Bft) 100,00 %
11.03.2023 03:04 0,5 C 0,0 C -1,7 C 93 % 1007,7 hPa 0,0 l/m 0 min 0 min 0 W/m 9,7 km/h (2 Bft) 97,83 %
11.03.2023 03:06 0,5 C 0,0 C -1,7 C 93 % 1007,7 hPa 0,0 l/m 0 min 0 min 0 W/m 6,4 km/h (2 Bft) 98,15 %
11.03.2023 03:08 0,5 C 0,0 C -1,7 C 93 % 1007,7 hPa 0,0 l/m 0 min 0 min 0 W/m 12,9 km/h (3 Bft) 100,00 %
11.03.2023 03:10 0,4 C 0,0 C -1,7 C 93 % 1007,7 hPa 0,0 l/m 0 min 0 min 0 W/m 6,4 km/h (2 Bft) 97,87 %
11.03.2023 03:12 0,4 C 0,0 C -1,7 C 92 % 1007,7 hPa 0,0 l/m 0 min 0 min 0 W/m 6,4 km/h (2 Bft) 100,00 %
11.03.2023 03:14 0,4 C 0,0 C -1,7 C 92 % 1007,7 hPa 0,0 l/m 0 min 0 min 0 W/m 9,7 km/h (2 Bft) 97,87 %
11.03.2023 03:16 0,4 C 0,0 C -1,7 C 92 % 1007,7 hPa 0,0 l/m 0 min 0 min 0 W/m 12,9 km/h (3 Bft) 100,00 %
11.03.2023 03:18 0,3 C -0,6 C -1,7 C 92 % 1007,8 hPa 0,0 l/m 0 min 0 min 0 W/m 6,4 km/h (2 Bft) 97,83 %
11.03.2023 03:20 0,3 C -0,6 C -1,7 C 92 % 1007,8 hPa 0,0 l/m 0 min 0 min 0 W/m 6,4 km/h (2 Bft) 100,00 %
11.03.2023 03:22 0,3 C -0,6 C -1,7 C 92 % 1007,8 hPa 0,0 l/m 0 min 0 min 0 W/m 6,4 km/h (2 Bft) 97,87 %
11.03.2023 03:24 0,3 C -0,6 C -2,2 C 92 % 1007,8 hPa 0,0 l/m 0 min 0 min 0 W/m 6,4 km/h (2 Bft) 97,87 %
11.03.2023 03:26 0,3 C -0,6 C -2,2 C 92 % 1007,8 hPa 0,0 l/m 0 min 0 min 0 W/m 9,7 km/h (2 Bft) 100,00 %
11.03.2023 03:28 0,3 C -0,6 C -2,2 C 92 % 1007,7 hPa 0,0 l/m 0 min 0 min 0 W/m 9,7 km/h (2 Bft) 100,00 %
11.03.2023 03:30 0,2 C -0,6 C -2,2 C 92 % 1007,7 hPa 0,0 l/m 0 min 0 min 0 W/m 12,9 km/h (3 Bft) 100,00 %
11.03.2023 03:32 0,2 C -0,6 C -2,2 C 92 % 1007,7 hPa 0,0 l/m 0 min 0 min 0 W/m 6,4 km/h (2 Bft) 97,87 %
11.03.2023 03:34 0,2 C -0,6 C -2,2 C 92 % 1007,7 hPa 0,0 l/m 0 min 0 min 0 W/m 9,7 km/h (2 Bft) 97,87 %
11.03.2023 03:36 0,2 C -0,6 C -2,2 C 92 % 1007,8 hPa 0,0 l/m 0 min 0 min 0 W/m 9,7 km/h (2 Bft) 97,87 %
11.03.2023 03:38 0,1 C -0,6 C -2,2 C 92 % 1007,8 hPa 0,0 l/m 0 min 0 min 0 W/m 3,2 km/h (1 Bft) 55,56 %
11.03.2023 03:40 0,1 C -0,6 C -2,2 C 92 % 1007,8 hPa 0,0 l/m 0 min 0 min 0 W/m 9,7 km/h (2 Bft) 95,74 %
11.03.2023 03:42 0,1 C -0,6 C -2,2 C 92 % 1007,8 hPa 0,0 l/m 0 min 0 min 0 W/m 6,4 km/h (2 Bft) 97,87 %
11.03.2023 03:44 0,1 C -0,6 C -2,2 C 92 % 1007,8 hPa 0,0 l/m 0 min 0 min 0 W/m 9,7 km/h (2 Bft) 97,87 %
11.03.2023 03:46 0,1 C -0,6 C -2,2 C 92 % 1007,8 hPa 0,0 l/m 0 min 0 min 0 W/m 6,4 km/h (2 Bft) 93,48 %
11.03.2023 03:48 0,1 C -0,6 C -2,2 C 92 % 1007,8 hPa 0,0 l/m 0 min 0 min 0 W/m 9,7 km/h (2 Bft) 97,87 %
11.03.2023 03:50 0,1 C -0,6 C -2,2 C 92 % 1007,8 hPa 0,0 l/m 0 min 0 min 0 W/m 6,4 km/h (2 Bft) 97,87 %
11.03.2023 03:52 0,1 C -0,6 C -2,2 C 92 % 1007,9 hPa 0,0 l/m 0 min 0 min 0 W/m 9,7 km/h (2 Bft) 97,87 %
11.03.2023 03:54 0,1 C -0,6 C -2,2 C 92 % 1007,8 hPa 0,0 l/m 0 min 0 min 0 W/m 6,4 km/h (2 Bft) 95,74 %
11.03.2023 03:56 0,0 C -0,6 C -2,2 C 92 % 1007,8 hPa 0,0 l/m 0 min 0 min 0 W/m 9,7 km/h (2 Bft) 95,35 %
11.03.2023 03:58 0,0 C -0,6 C -2,2 C 92 % 1007,8 hPa 0,0 l/m 0 min 0 min 0 W/m 9,7 km/h (2 Bft) 91,49 %
11.03.2023 04:00 0,0 C -0,6 C -2,2 C 92 % 1007,8 hPa 0,0 l/m 0 min 0 min 0 W/m 6,4 km/h (2 Bft) 95,74 %
11.03.2023 04:02 -0,1 C -0,6 C -2,2 C 91 % 1007,9 hPa 0,0 l/m 0 min 0 min 0 W/m 6,4 km/h (2 Bft) 93,48 %
11.03.2023 04:04 -0,1 C -0,6 C -2,2 C 91 % 1007,9 hPa 0,0 l/m 0 min 0 min 0 W/m 3,2 km/h (1 Bft) 95,74 %
11.03.2023 04:06 -0,1 C -0,6 C -2,2 C 91 % 1007,9 hPa 0,0 l/m 0 min 0 min 0 W/m 3,2 km/h (1 Bft) 98,31 %
11.03.2023 04:08 -0,1 C -0,6 C -2,2 C 91 % 1007,9 hPa 0,0 l/m 0 min 0 min 0 W/m 3,2 km/h (1 Bft) 97,14 %
11.03.2023 04:10 -0,1 C -0,6 C -2,2 C 91 % 1007,9 hPa 0,0 l/m 0 min 0 min 0 W/m 6,4 km/h (2 Bft) 95,74 %
11.03.2023 04:12 -0,1 C -0,6 C -2,2 C 91 % 1007,9 hPa 0,0 l/m 0 min 0 min 0 W/m 6,4 km/h (2 Bft) 98,08 %
11.03.2023 04:14 -0,1 C -1,1 C -2,2 C 91 % 1007,9 hPa 0,0 l/m 0 min 0 min 0 W/m 3,2 km/h (1 Bft) 97,87 %
11.03.2023 04:16 -0,1 C -1,1 C -2,2 C 91 % 1007,9 hPa 0,0 l/m 0 min 0 min 0 W/m 3,2 km/h (1 Bft) 95,74 %
11.03.2023 04:18 -0,1 C -1,1 C -2,2 C 91 % 1008,0 hPa 0,0 l/m 0 min 0 min 0 W/m 6,4 km/h (2 Bft) 93,62 %
11.03.2023 04:20 -0,2 C -1,1 C -2,2 C 91 % 1007,9 hPa 0,0 l/m 0 min 0 min 0 W/m 6,4 km/h (2 Bft) 97,87 %
11.03.2023 04:22 -0,2 C -1,1 C -2,8 C 91 % 1008,0 hPa 0,0 l/m 0 min 0 min 0 W/m 3,2 km/h (1 Bft) 94,00 %
11.03.2023 04:24 -0,2 C -1,1 C -2,8 C 91 % 1008,0 hPa 0,0 l/m 0 min 0 min 0 W/m 3,2 km/h (1 Bft) 97,37 %
11.03.2023 04:26 -0,2 C -1,1 C -2,8 C 91 % 1008,0 hPa 0,0 l/m 0 min 0 min 0 W/m 3,2 km/h (1 Bft) 97,87 %
11.03.2023 04:28 -0,2 C -1,1 C -2,8 C 91 % 1008,0 hPa 0,0 l/m 0 min 0 min 0 W/m 0,0 km/h (0 Bft) 98,08 %
11.03.2023 04:30 -0,2 C -1,1 C -2,8 C 91 % 1008,0 hPa 0,0 l/m 0 min 0 min 0 W/m 6,4 km/h (2 Bft) 97,87 %
11.03.2023 04:32 -0,2 C -1,1 C -2,8 C 91 % 1008,0 hPa 0,0 l/m 0 min 0 min 0 W/m 3,2 km/h (1 Bft) 97,87 %
11.03.2023 04:34 -0,3 C -1,1 C -2,8 C 91 % 1008,0 hPa 0,0 l/m 0 min 0 min 0 W/m 3,2 km/h (1 Bft) 97,87 %
11.03.2023 04:36 -0,3 C -1,1 C -2,8 C 91 % 1008,1 hPa 0,0 l/m 0 min 0 min 0 W/m 3,2 km/h (1 Bft) 98,00 %
11.03.2023 04:38 -0,3 C -1,1 C -2,8 C 91 % 1008,2 hPa 0,0 l/m 0 min 0 min 0 W/m 3,2 km/h (1 Bft) 100,00 %
11.03.2023 04:40 -0,3 C -1,1 C -2,8 C 91 % 1008,2 hPa 0,0 l/m 0 min 0 min 0 W/m 3,2 km/h (1 Bft) 100,00 %
11.03.2023 04:42 -0,3 C -1,1 C -2,8 C 91 % 1008,2 hPa 0,0 l/m 0 min 0 min 0 W/m 0,0 km/h (0 Bft) 100,00 %
11.03.2023 04:44 -0,4 C -1,1 C -2,8 C 91 % 1008,3 hPa 0,0 l/m 0 min 0 min 0 W/m 0,0 km/h (0 Bft) 100,00 %
11.03.2023 04:46 -0,4 C -1,1 C -2,8 C 91 % 1008,3 hPa 0,0 l/m 0 min 0 min 0 W/m 3,2 km/h (1 Bft) 97,87 %
11.03.2023 04:48 -0,4 C -1,1 C -2,8 C 91 % 1008,3 hPa 0,0 l/m 0 min 0 min 0 W/m 3,2 km/h (1 Bft) 97,87 %
11.03.2023 04:50 -0,4 C -1,1 C -2,8 C 91 % 1008,3 hPa 0,0 l/m 0 min 0 min 0 W/m 3,2 km/h (1 Bft) 100,00 %
11.03.2023 04:52 -0,4 C -1,1 C -2,8 C 91 % 1008,3 hPa 0,0 l/m 0 min 0 min 0 W/m 6,4 km/h (2 Bft) 97,83 %
11.03.2023 04:54 -0,4 C -1,1 C -2,8 C 91 % 1008,3 hPa 0,0 l/m 0 min 0 min 0 W/m 0,0 km/h (0 Bft) 100,00 %
11.03.2023 04:56 -0,4 C -1,1 C -2,8 C 91 % 1008,4 hPa 0,0 l/m 0 min 0 min 0 W/m 3,2 km/h (1 Bft) 100,00 %
11.03.2023 04:58 -0,5 C -1,1 C -2,8 C 91 % 1008,4 hPa 0,0 l/m 0 min 0 min 0 W/m 3,2 km/h (1 Bft) 97,87 %
11.03.2023 05:00 -0,5 C -1,1 C -2,8 C 91 % 1008,5 hPa 0,0 l/m 0 min 0 min 0 W/m 0,0 km/h (0 Bft) 100,00 %
11.03.2023 05:02 -0,5 C -1,1 C -2,8 C 91 % 1008,5 hPa 0,0 l/m 0 min 0 min 0 W/m 6,4 km/h (2 Bft) 100,00 %
11.03.2023 05:04 -0,5 C -1,1 C -2,8 C 91 % 1008,5 hPa 0,0 l/m 0 min 0 min 0 W/m 3,2 km/h (1 Bft) 97,83 %
11.03.2023 05:06 -0,5 C -1,1 C -2,8 C 91 % 1008,5 hPa 0,0 l/m 0 min 0 min 0 W/m 3,2 km/h (1 Bft) 97,87 %
11.03.2023 05:08 -0,6 C -1,1 C -2,8 C 91 % 1008,5 hPa 0,0 l/m 0 min 0 min 0 W/m 6,4 km/h (2 Bft) 95,74 %
11.03.2023 05:10 -0,6 C -1,1 C -2,8 C 91 % 1008,5 hPa 0,0 l/m 0 min 0 min 0 W/m 3,2 km/h (1 Bft) 97,87 %
11.03.2023 05:12 -0,6 C -1,1 C -2,8 C 91 % 1008,5 hPa 0,0 l/m 0 min 0 min 0 W/m 6,4 km/h (2 Bft) 97,87 %
11.03.2023 05:14 -0,6 C -1,1 C -2,8 C 91 % 1008,5 hPa 0,0 l/m 0 min 0 min 0 W/m 3,2 km/h (1 Bft) 97,30 %
11.03.2023 05:16 -0,6 C -1,1 C -2,8 C 91 % 1008,6 hPa 0,0 l/m 0 min 0 min 0 W/m 6,4 km/h (2 Bft) 93,62 %
11.03.2023 05:18 -0,6 C -1,1 C -2,8 C 91 % 1008,6 hPa 0,0 l/m 0 min 0 min 0 W/m 3,2 km/h (1 Bft) 91,49 %
11.03.2023 05:20 -0,6 C -1,1 C -2,8 C 91 % 1008,6 hPa 0,0 l/m 0 min 0 min 0 W/m 3,2 km/h (1 Bft) 93,62 %
11.03.2023 05:22 -0,6 C -1,1 C -2,8 C 91 % 1008,6 hPa 0,0 l/m 0 min 0 min 0 W/m 3,2 km/h (1 Bft) 95,65 %
11.03.2023 05:24 -0,6 C -1,1 C -2,8 C 91 % 1008,7 hPa 0,0 l/m 0 min 0 min 0 W/m 3,2 km/h (1 Bft) 93,62 %
11.03.2023 05:26 -0,6 C -1,1 C -2,8 C 91 % 1008,7 hPa 0,0 l/m 0 min 0 min 0 W/m 3,2 km/h (1 Bft) 95,74 %
11.03.2023 05:28 -0,6 C -1,1 C -2,8 C 91 % 1008,7 hPa 0,0 l/m 0 min 0 min 0 W/m 3,2 km/h (1 Bft) 95,74 %
11.03.2023 05:30 -0,5 C -1,1 C -2,8 C 91 % 1008,7 hPa 0,0 l/m 0 min 0 min 0 W/m 6,4 km/h (2 Bft) 93,62 %
11.03.2023 05:32 -0,5 C -1,1 C -2,8 C 91 % 1008,7 hPa 0,0 l/m 0 min 0 min 0 W/m 3,2 km/h (1 Bft) 95,74 %
11.03.2023 05:34 -0,5 C -1,1 C -2,8 C 91 % 1008,7 hPa 0,0 l/m 0 min 0 min 0 W/m 6,4 km/h (2 Bft) 95,65 %
11.03.2023 05:36 -0,4 C -1,1 C -2,8 C 91 % 1008,8 hPa 0,0 l/m 0 min 0 min 0 W/m 3,2 km/h (1 Bft) 93,62 %
11.03.2023 05:38 -0,4 C -0,6 C -2,2 C 91 % 1008,7 hPa 0,0 l/m 0 min 0 min 0 W/m 3,2 km/h (1 Bft) 95,74 %
11.03.2023 05:43 -0,4 C -1,1 C -2,2 C 92 % 1008,9 hPa 0,0 l/m 0 min 0 min 0 W/m 3,2 km/h (1 Bft) 94,23 %
11.03.2023 05:44 -0,4 C -0,6 C -2,2 C 92 % 1008,9 hPa 0,0 l/m 0 min 0 min 0 W/m 3,2 km/h (1 Bft) 100,00 %
11.03.2023 05:46 -0,4 C -0,6 C -2,2 C 92 % 1008,9 hPa 0,0 l/m 0 min 0 min 0 W/m 6,4 km/h (2 Bft) 93,62 %
11.03.2023 05:48 -0,4 C -0,6 C -2,2 C 92 % 1008,9 hPa 0,0 l/m 0 min 0 min 0 W/m 6,4 km/h (2 Bft) 97,83 %
11.03.2023 05:50 -0,3 C -0,6 C -2,2 C 92 % 1008,9 hPa 0,0 l/m 0 min 0 min 0 W/m 3,2 km/h (1 Bft) 97,87 %
11.03.2023 05:52 -0,3 C -0,6 C -2,2 C 91 % 1009,0 hPa 0,0 l/m 0 min 0 min 0 W/m 3,2 km/h (1 Bft) 93,62 %
11.03.2023 05:54 -0,3 C -0,6 C -2,2 C 91 % 1008,9 hPa 0,0 l/m 0 min 0 min 0 W/m 3,2 km/h (1 Bft) 97,87 %
11.03.2023 05:56 -0,3 C -0,6 C -2,2 C 91 % 1008,9 hPa 0,0 l/m 0 min 0 min 0 W/m 3,2 km/h (1 Bft) 95,74 %
11.03.2023 05:58 -0,3 C -0,6 C -2,2 C 91 % 1008,9 hPa 0,0 l/m 0 min 0 min 0 W/m 3,2 km/h (1 Bft) 97,87 %
11.03.2023 06:00 -0,3 C -0,6 C -2,2 C 91 % 1009,0 hPa 0,0 l/m 0 min 0 min 0 W/m 0,0 km/h (0 Bft) 95,74 %
11.03.2023 06:02 -0,3 C -0,6 C -2,2 C 91 % 1009,0 hPa 0,0 l/m 0 min 0 min 0 W/m 0,0 km/h (0 Bft) 91,30 %
11.03.2023 06:04 -0,3 C -0,6 C -2,2 C 91 % 1009,0 hPa 0,0 l/m 0 min 0 min 0 W/m 3,2 km/h (1 Bft) 95,74 %
11.03.2023 06:07 -0,3 C -0,6 C -2,2 C 91 % 1009,0 hPa 0,0 l/m 0 min 0 min 0 W/m 3,2 km/h (1 Bft) 97,14 %
11.03.2023 06:08 -0,3 C -0,6 C -2,2 C 91 % 1009,0 hPa 0,0 l/m 0 min 0 min 0 W/m 3,2 km/h (1 Bft) 95,83 %
11.03.2023 06:12 -0,3 C -0,6 C -2,2 C 91 % 1009,1 hPa 0,0 l/m 0 min 0 min 0 W/m 3,2 km/h (1 Bft) 96,88 %
11.03.2023 06:14 -0,3 C -0,6 C -2,2 C 91 % 1009,1 hPa 0,0 l/m 0 min 0 min 0 W/m 3,2 km/h (1 Bft) 97,87 %
11.03.2023 06:16 -0,3 C -0,6 C -2,2 C 91 % 1009,1 hPa 0,0 l/m 0 min 0 min 0 W/m 0,0 km/h (0 Bft) 93,62 %
11.03.2023 06:18 -0,3 C -0,6 C -2,2 C 91 % 1009,1 hPa 0,0 l/m 0 min 0 min 0 W/m 3,2 km/h (1 Bft) 55,56 %
11.03.2023 06:20 -0,3 C -0,6 C -2,2 C 91 % 1009,2 hPa 0,0 l/m 0 min 0 min 0 W/m 6,4 km/h (2 Bft) 97,87 %
11.03.2023 06:22 -0,3 C -0,6 C -2,2 C 91 % 1009,1 hPa 0,0 l/m 0 min 0 min 0 W/m 0,0 km/h (0 Bft) 95,74 %
11.03.2023 06:24 -0,3 C -0,6 C -2,2 C 91 % 1009,1 hPa 0,0 l/m 0 min 0 min 0 W/m 0,0 km/h (0 Bft) 95,65 %
11.03.2023 06:26 -0,3 C -0,6 C -2,2 C 91 % 1009,1 hPa 0,0 l/m 0 min 0 min 0 W/m 0,0 km/h (0 Bft) 97,83 %
11.03.2023 06:28 -0,3 C -0,6 C -2,2 C 91 % 1009,2 hPa 0,0 l/m 0 min 0 min 0 W/m 0,0 km/h (0 Bft) 97,87 %
11.03.2023 06:30 -0,3 C -0,6 C -2,2 C 91 % 1009,2 hPa 0,0 l/m 0 min 0 min 0 W/m 0,0 km/h (0 Bft) 97,87 %
11.03.2023 06:32 -0,3 C -1,1 C -2,2 C 91 % 1009,2 hPa 0,0 l/m 0 min 0 min 0 W/m 0,0 km/h (0 Bft) 95,74 %
11.03.2023 06:34 -0,3 C -1,1 C -2,2 C 91 % 1009,2 hPa 0,0 l/m 0 min 0 min 0 W/m 0,0 km/h (0 Bft) 93,62 %
11.03.2023 06:36 -0,2 C -0,6 C -2,2 C 91 % 1009,2 hPa 0,0 l/m 0 min 0 min 0 W/m 0,0 km/h (0 Bft) 100,00 %
11.03.2023 06:38 -0,2 C -0,6 C -2,2 C 91 % 1009,2 hPa 0,0 l/m 0 min 0 min 0 W/m 3,2 km/h (1 Bft) 100,00 %
11.03.2023 06:40 -0,2 C -0,6 C -2,2 C 91 % 1009,2 hPa 0,0 l/m 0 min 0 min 0 W/m 0,0 km/h (0 Bft) 100,00 %
11.03.2023 06:42 -0,2 C -0,6 C -2,2 C 91 % 1009,2 hPa 0,0 l/m 0 min 0 min 0 W/m 3,2 km/h (1 Bft) 97,87 %
11.03.2023 06:44 -0,2 C -0,6 C -2,2 C 91 % 1009,3 hPa 0,0 l/m 0 min 0 min 0 W/m 3,2 km/h (1 Bft) 97,14 %
11.03.2023 06:46 -0,3 C -0,6 C -2,2 C 91 % 1009,3 hPa 0,0 l/m 0 min 0 min 0 W/m 3,2 km/h (1 Bft) 100,00 %
11.03.2023 06:48 -0,2 C -0,6 C -2,2 C 91 % 1009,3 hPa 0,0 l/m 0 min 0 min 0 W/m 3,2 km/h (1 Bft) 100,00 %
11.03.2023 06:50 -0,2 C -0,6 C -2,2 C 91 % 1009,3 hPa 0,0 l/m 0 min 0 min 0 W/m 3,2 km/h (1 Bft) 100,00 %
11.03.2023 06:52 -0,2 C -0,6 C -2,2 C 91 % 1009,3 hPa 0,0 l/m 0 min 0 min 0 W/m 3,2 km/h (1 Bft) 100,00 %
11.03.2023 06:54 -0,2 C -0,6 C -2,2 C 91 % 1009,3 hPa 0,0 l/m 0 min 0 min 0 W/m 0,0 km/h (0 Bft) 100,00 %
11.03.2023 06:56 -0,2 C -0,6 C -2,2 C 91 % 1009,3 hPa 0,0 l/m 0 min 0 min 0 W/m 3,2 km/h (1 Bft) 100,00 %
11.03.2023 06:58 -0,2 C -0,6 C -2,2 C 91 % 1009,4 hPa 0,0 l/m 0 min 0 min 0 W/m 3,2 km/h (1 Bft) 97,87 %
11.03.2023 07:00 -0,2 C -1,1 C -2,2 C 91 % 1009,4 hPa 0,0 l/m 0 min 0 min 1 W/m 0,0 km/h (0 Bft) 97,87 %
11.03.2023 07:02 -0,2 C -1,1 C -2,2 C 91 % 1009,4 hPa 0,0 l/m 0 min 0 min 5 W/m 0,0 km/h (0 Bft) 97,87 %
11.03.2023 07:04 -0,2 C -1,1 C -2,2 C 91 % 1009,5 hPa 0,0 l/m 0 min 0 min 6 W/m 0,0 km/h (0 Bft) 98,00 %
11.03.2023 07:06 -0,3 C -1,1 C -2,2 C 91 % 1009,5 hPa 0,0 l/m 0 min 0 min 8 W/m 0,0 km/h (0 Bft) 96,55 %
11.03.2023 07:08 -0,3 C -1,1 C -2,2 C 91 % 1009,5 hPa 0,0 l/m 0 min 0 min 9 W/m 0,0 km/h (0 Bft) 100,00 %
11.03.2023 07:10 -0,3 C -1,1 C -2,2 C 91 % 1009,5 hPa 0,0 l/m 0 min 0 min 11 W/m 0,0 km/h (0 Bft) 97,87 %
11.03.2023 07:12 -0,3 C -1,1 C -2,8 C 91 % 1009,6 hPa 0,0 l/m 0 min 0 min 11 W/m 3,2 km/h (1 Bft) 97,87 %
11.03.2023 07:14 -0,3 C -1,1 C -2,8 C 91 % 1009,5 hPa 0,0 l/m 0 min 0 min 12 W/m 3,2 km/h (1 Bft) 95,74 %
11.03.2023 07:16 -0,3 C -1,1 C -2,8 C 91 % 1009,5 hPa 0,0 l/m 0 min 0 min 14 W/m 3,2 km/h (1 Bft) 97,87 %
11.03.2023 07:18 -0,3 C -1,1 C -2,8 C 91 % 1009,5 hPa 0,0 l/m 0 min 0 min 17 W/m 3,2 km/h (1 Bft) 97,87 %
11.03.2023 07:20 -0,3 C -1,1 C -2,2 C 91 % 1009,5 hPa 0,0 l/m 0 min 0 min 18 W/m 3,2 km/h (1 Bft) 97,83 %
11.03.2023 07:22 -0,3 C -1,1 C -2,2 C 91 % 1009,5 hPa 0,0 l/m 0 min 0 min 20 W/m 3,2 km/h (1 Bft) 97,87 %
11.03.2023 07:24 -0,3 C -1,1 C -2,2 C 91 % 1009,6 hPa 0,0 l/m 0 min 0 min 21 W/m 0,0 km/h (0 Bft) 97,87 %
11.03.2023 07:26 -0,3 C -1,1 C -2,2 C 91 % 1009,6 hPa 0,0 l/m 0 min 0 min 21 W/m 0,0 km/h (0 Bft) 97,87 %
11.03.2023 07:28 -0,4 C -1,1 C -2,8 C 91 % 1009,7 hPa 0,0 l/m 0 min 0 min 19 W/m 0,0 km/h (0 Bft) 100,00 %
11.03.2023 07:30 -0,4 C -1,1 C -2,8 C 91 % 1009,8 hPa 0,0 l/m 0 min 0 min 19 W/m 0,0 km/h (0 Bft) 100,00 %
11.03.2023 07:32 -0,4 C -1,1 C -2,8 C 91 % 1009,8 hPa 0,0 l/m 0 min 0 min 19 W/m 3,2 km/h (1 Bft) 100,00 %
11.03.2023 07:34 -0,4 C -1,1 C -2,8 C 91 % 1009,8 hPa 0,0 l/m 0 min 0 min 19 W/m 3,2 km/h (1 Bft) 100,00 %
11.03.2023 07:36 -0,4 C -1,1 C -2,8 C 91 % 1009,8 hPa 0,0 l/m 0 min 0 min 20 W/m 0,0 km/h (0 Bft) 97,87 %
11.03.2023 07:38 -0,4 C -1,1 C -2,8 C 91 % 1009,8 hPa 0,0 l/m 0 min 0 min 22 W/m 3,2 km/h (1 Bft) 100,00 %
11.03.2023 07:40 -0,4 C -1,1 C -2,8 C 91 % 1009,8 hPa 0,0 l/m 0 min 0 min 23 W/m 0,0 km/h (0 Bft) 41,18 %
11.03.2023 07:42 -0,4 C -1,1 C -2,8 C 91 % 1009,9 hPa 0,0 l/m 0 min 0 min 28 W/m 0,0 km/h (0 Bft) 100,00 %
11.03.2023 07:44 -0,4 C -0,6 C -2,8 C 91 % 1009,9 hPa 0,0 l/m 0 min 0 min 28 W/m 0,0 km/h (0 Bft) 100,00 %
11.03.2023 07:46 -0,4 C -1,1 C -2,8 C 91 % 1009,9 hPa 0,0 l/m 0 min 0 min 25 W/m 0,0 km/h (0 Bft) 100,00 %
11.03.2023 07:48 -0,4 C -1,1 C -2,8 C 91 % 1009,9 hPa 0,0 l/m 0 min 0 min 23 W/m 3,2 km/h (1 Bft) 100,00 %
11.03.2023 07:50 -0,4 C -1,1 C -2,8 C 91 % 1009,9 hPa 0,0 l/m 0 min 0 min 23 W/m 3,2 km/h (1 Bft) 100,00 %
11.03.2023 07:52 -0,4 C -1,1 C -2,8 C 91 % 1010,0 hPa 0,0 l/m 0 min 0 min 23 W/m 3,2 km/h (1 Bft) 100,00 %
11.03.2023 07:54 -0,4 C -1,1 C -2,8 C 91 % 1010,0 hPa 0,0 l/m 0 min 0 min 24 W/m 0,0 km/h (0 Bft) 97,87 %
11.03.2023 07:56 -0,4 C -1,1 C -2,8 C 91 % 1010,1 hPa 0,0 l/m 0 min 0 min 25 W/m 3,2 km/h (1 Bft) 97,87 %
11.03.2023 07:58 -0,4 C -1,1 C -2,8 C 91 % 1010,1 hPa 0,0 l/m 0 min 0 min 26 W/m 3,2 km/h (1 Bft) 100,00 %
11.03.2023 08:00 -0,4 C -1,1 C -2,8 C 91 % 1010,2 hPa 0,0 l/m 0 min 0 min 27 W/m 3,2 km/h (1 Bft) 95,74 %
11.03.2023 08:02 -0,4 C -1,1 C -2,8 C 91 % 1010,3 hPa 0,0 l/m 0 min 0 min 28 W/m 6,4 km/h (2 Bft) 95,65 %
11.03.2023 08:04 -0,4 C -0,6 C -2,8 C 91 % 1010,3 hPa 0,0 l/m 0 min 0 min 28 W/m 3,2 km/h (1 Bft) 97,87 %
11.03.2023 08:06 -0,4 C -0,6 C -2,8 C 91 % 1010,3 hPa 0,0 l/m 0 min 0 min 28 W/m 3,2 km/h (1 Bft) 100,00 %
11.03.2023 08:08 -0,4 C -0,6 C -2,8 C 91 % 1010,3 hPa 0,0 l/m 0 min 0 min 28 W/m 0,0 km/h (0 Bft) 100,00 %
11.03.2023 08:10 -0,4 C -0,6 C -2,8 C 91 % 1010,4 hPa 0,0 l/m 0 min 0 min 29 W/m 6,4 km/h (2 Bft) 97,87 %
11.03.2023 08:12 -0,4 C -0,6 C -2,2 C 91 % 1010,4 hPa 0,0 l/m 0 min 0 min 30 W/m 3,2 km/h (1 Bft) 97,87 %
11.03.2023 08:14 -0,4 C -0,6 C -2,2 C 91 % 1010,4 hPa 0,0 l/m 0 min 0 min 30 W/m 0,0 km/h (0 Bft) 95,65 %
11.03.2023 08:16 -0,3 C -0,6 C -2,2 C 91 % 1010,4 hPa 0,0 l/m 0 min 0 min 30 W/m 3,2 km/h (1 Bft) 97,87 %
11.03.2023 08:18 -0,3 C -0,6 C -2,2 C 91 % 1010,5 hPa 0,0 l/m 0 min 0 min 32 W/m 3,2 km/h (1 Bft) 97,87 %
11.03.2023 08:20 -0,3 C -0,6 C -2,2 C 91 % 1010,5 hPa 0,0 l/m 0 min 0 min 32 W/m 3,2 km/h (1 Bft) 97,87 %
11.03.2023 08:22 -0,3 C -0,6 C -2,2 C 91 % 1010,5 hPa 0,0 l/m 0 min 0 min 33 W/m 6,4 km/h (2 Bft) 97,56 %
11.03.2023 08:24 -0,3 C -0,6 C -2,2 C 91 % 1010,6 hPa 0,0 l/m 0 min 0 min 35 W/m 3,2 km/h (1 Bft) 97,87 %
11.03.2023 08:26 -0,2 C 0,0 C -2,2 C 91 % 1010,6 hPa 0,0 l/m 0 min 0 min 35 W/m 6,4 km/h (2 Bft) 97,87 %
11.03.2023 08:28 -0,2 C 0,0 C -2,2 C 91 % 1010,7 hPa 0,0 l/m 0 min 0 min 35 W/m 6,4 km/h (2 Bft) 95,74 %
11.03.2023 08:30 -0,2 C 0,0 C -2,2 C 91 % 1010,7 hPa 0,0 l/m 0 min 0 min 37 W/m 6,4 km/h (2 Bft) 98,18 %
11.03.2023 08:32 -0,2 C 0,0 C -2,2 C 91 % 1010,7 hPa 0,0 l/m 0 min 0 min 38 W/m 3,2 km/h (1 Bft) 97,37 %
11.03.2023 08:34 -0,1 C 0,0 C -2,2 C 91 % 1010,8 hPa 0,0 l/m 0 min 0 min 40 W/m 3,2 km/h (1 Bft) 97,87 %
11.03.2023 08:36 -0,1 C 0,0 C -2,2 C 91 % 1010,8 hPa 0,0 l/m 0 min 0 min 41 W/m 6,4 km/h (2 Bft) 95,74 %
11.03.2023 08:38 -0,1 C 0,0 C -2,2 C 91 % 1010,8 hPa 0,0 l/m 0 min 0 min 44 W/m 3,2 km/h (1 Bft) 93,62 %
11.03.2023 08:40 -0,1 C 0,0 C -2,2 C 91 % 1010,9 hPa 0,0 l/m 0 min 0 min 44 W/m 6,4 km/h (2 Bft) 93,62 %
11.03.2023 08:42 0,0 C 0,0 C -2,2 C 91 % 1010,9 hPa 0,0 l/m 0 min 0 min 46 W/m 6,4 km/h (2 Bft) 93,62 %
11.03.2023 08:44 0,1 C 0,6 C -1,7 C 91 % 1010,9 hPa 0,0 l/m 0 min 0 min 62 W/m 6,4 km/h (2 Bft) 95,65 %
11.03.2023 08:46 0,1 C 0,6 C -1,7 C 91 % 1010,9 hPa 0,0 l/m 2 min 0 min 195 W/m 6,4 km/h (2 Bft) 89,36 %
11.03.2023 08:48 0,1 C 0,6 C -1,7 C 91 % 1010,9 hPa 0,0 l/m 2 min 0 min 144 W/m 9,7 km/h (2 Bft) 93,62 %
11.03.2023 08:50 0,2 C 0,6 C -1,7 C 91 % 1010,9 hPa 0,0 l/m 2 min 0 min 169 W/m 9,7 km/h (2 Bft) 95,74 %
11.03.2023 08:52 0,2 C 1,1 C -1,7 C 91 % 1010,9 hPa 0,0 l/m 2 min 0 min 175 W/m 6,4 km/h (2 Bft) 95,74 %
11.03.2023 08:54 0,3 C 2,8 C -1,7 C 91 % 1011,0 hPa 0,0 l/m 2 min 0 min 215 W/m 6,4 km/h (2 Bft) 97,87 %
11.03.2023 08:56 0,3 C 5,0 C -1,7 C 90 % 1011,0 hPa 0,0 l/m 2 min 0 min 276 W/m 6,4 km/h (2 Bft) 95,65 %
11.03.2023 08:58 0,4 C 6,7 C -1,7 C 90 % 1011,0 hPa 0,0 l/m 2 min 0 min 277 W/m 3,2 km/h (1 Bft) 95,74 %
11.03.2023 09:00 0,6 C 6,7 C -1,7 C 90 % 1011,0 hPa 0,0 l/m 2 min 0 min 279 W/m 6,4 km/h (2 Bft) 93,62 %
11.03.2023 09:02 0,6 C 6,7 C -1,1 C 90 % 1011,0 hPa 0,0 l/m 2 min 0 min 245 W/m 3,2 km/h (1 Bft) 91,49 %
11.03.2023 09:04 0,8 C 6,7 C -1,1 C 90 % 1011,0 hPa 0,0 l/m 2 min 0 min 217 W/m 12,9 km/h (3 Bft) 89,36 %
11.03.2023 09:06 0,9 C 7,2 C -1,1 C 89 % 1011,0 hPa 0,0 l/m 2 min 0 min 207 W/m 6,4 km/h (2 Bft) 94,83 %
11.03.2023 09:08 1,1 C 7,2 C -1,1 C 89 % 1011,1 hPa 0,0 l/m 2 min 0 min 263 W/m 6,4 km/h (2 Bft) 94,44 %
11.03.2023 09:10 1,2 C 7,2 C -1,1 C 89 % 1011,1 hPa 0,0 l/m 2 min 0 min 300 W/m 6,4 km/h (2 Bft) 95,65 %
11.03.2023 09:12 1,3 C 7,8 C -0,6 C 88 % 1011,1 hPa 0,0 l/m 2 min 0 min 313 W/m 9,7 km/h (2 Bft) 95,74 %
11.03.2023 09:14 1,4 C 7,2 C -0,6 C 88 % 1011,1 hPa 0,0 l/m 2 min 0 min 245 W/m 6,4 km/h (2 Bft) 97,87 %
11.03.2023 09:16 1,5 C 7,2 C -0,6 C 88 % 1011,1 hPa 0,0 l/m 2 min 0 min 236 W/m 3,2 km/h (1 Bft) 95,74 %
11.03.2023 09:18 1,7 C 7,2 C -0,6 C 87 % 1011,1 hPa 0,0 l/m 2 min 0 min 307 W/m 6,4 km/h (2 Bft) 95,74 %
11.03.2023 09:20 1,8 C 7,8 C -0,6 C 87 % 1011,1 hPa 0,0 l/m 2 min 0 min 326 W/m 3,2 km/h (1 Bft) 100,00 %
11.03.2023 09:22 1,9 C 7,8 C -0,6 C 87 % 1011,1 hPa 0,0 l/m 2 min 0 min 326 W/m 3,2 km/h (1 Bft) 97,83 %
11.03.2023 09:24 2,1 C 8,3 C -0,6 C 86 % 1011,1 hPa 0,0 l/m 2 min 0 min 278 W/m 6,4 km/h (2 Bft) 97,87 %
11.03.2023 09:26 2,2 C 8,3 C -0,6 C 86 % 1011,1 hPa 0,0 l/m 2 min 0 min 301 W/m 12,9 km/h (3 Bft) 95,74 %
11.03.2023 09:28 2,3 C 9,4 C -0,6 C 85 % 1011,2 hPa 0,0 l/m 2 min 0 min 324 W/m 9,7 km/h (2 Bft) 100,00 %
11.03.2023 09:30 2,4 C 8,3 C -0,6 C 85 % 1011,2 hPa 0,0 l/m 2 min 0 min 243 W/m 6,4 km/h (2 Bft) 97,87 %
11.03.2023 09:32 2,5 C 7,8 C -0,6 C 84 % 1011,3 hPa 0,0 l/m 2 min 0 min 186 W/m 6,4 km/h (2 Bft) 97,87 %
11.03.2023 09:34 2,6 C 7,8 C 0,0 C 83 % 1011,3 hPa 0,0 l/m 2 min 0 min 211 W/m 6,4 km/h (2 Bft) 100,00 %
11.03.2023 09:36 2,6 C 6,7 C 0,0 C 83 % 1011,3 hPa 0,0 l/m 2 min 0 min 223 W/m 6,4 km/h (2 Bft) 97,83 %
11.03.2023 09:38 2,7 C 6,7 C 0,0 C 82 % 1011,2 hPa 0,0 l/m 0 min 0 min 157 W/m 6,4 km/h (2 Bft) 97,87 %
11.03.2023 09:40 2,7 C 6,7 C 0,0 C 82 % 1011,3 hPa 0,0 l/m 0 min 0 min 121 W/m 3,2 km/h (1 Bft) 97,87 %
11.03.2023 09:42 2,8 C 6,7 C 0,0 C 82 % 1011,2 hPa 0,0 l/m 0 min 0 min 179 W/m 6,4 km/h (2 Bft) 97,87 %
11.03.2023 09:44 2,9 C 6,7 C 0,0 C 82 % 1011,2 hPa 0,0 l/m 2 min 0 min 251 W/m 6,4 km/h (2 Bft) 100,00 %
11.03.2023 09:46 2,9 C 7,2 C 0,6 C 81 % 1011,3 hPa 0,0 l/m 2 min 0 min 308 W/m 6,4 km/h (2 Bft) 100,00 %
11.03.2023 09:48 3,0 C 8,3 C 0,6 C 81 % 1011,3 hPa 0,0 l/m 2 min 0 min 221 W/m 6,4 km/h (2 Bft) 100,00 %
11.03.2023 09:50 3,0 C 7,8 C 0,6 C 81 % 1011,3 hPa 0,0 l/m 0 min 0 min 123 W/m 6,4 km/h (2 Bft) 97,83 %
11.03.2023 09:52 3,1 C 7,8 C 0,6 C 81 % 1011,3 hPa 0,0 l/m 0 min 0 min 101 W/m 12,9 km/h (3 Bft) 100,00 %
11.03.2023 09:54 3,2 C 7,2 C 0,6 C 81 % 1011,4 hPa 0,0 l/m 0 min 0 min 137 W/m 9,7 km/h (2 Bft) 97,87 %
11.03.2023 09:56 3,3 C 6,7 C 0,6 C 80 % 1011,4 hPa 0,0 l/m 2 min 0 min 234 W/m 9,7 km/h (2 Bft) 97,87 %
11.03.2023 09:58 3,3 C 6,1 C 0,6 C 80 % 1011,4 hPa 0,0 l/m 2 min 0 min 351 W/m 9,7 km/h (2 Bft) 100,00 %
11.03.2023 10:00 3,4 C 5,6 C 1,1 C 80 % 1011,5 hPa 0,0 l/m 2 min 0 min 434 W/m 9,7 km/h (2 Bft) 97,87 %
11.03.2023 10:02 3,5 C 6,1 C 1,1 C 80 % 1011,4 hPa 0,0 l/m 2 min 0 min 361 W/m 9,7 km/h (2 Bft) 97,87 %
11.03.2023 10:04 3,6 C 6,7 C 1,1 C 79 % 1011,4 hPa 0,0 l/m 2 min 0 min 275 W/m 6,4 km/h (2 Bft) 97,87 %
11.03.2023 10:06 3,7 C 7,8 C 1,1 C 79 % 1011,4 hPa 0,0 l/m 2 min 0 min 330 W/m 6,4 km/h (2 Bft) 96,61 %
11.03.2023 10:08 3,7 C 8,3 C 1,7 C 78 % 1011,4 hPa 0,0 l/m 2 min 0 min 417 W/m 6,4 km/h (2 Bft) 97,14 %
11.03.2023 10:10 3,7 C 8,9 C 1,7 C 78 % 1011,4 hPa 0,0 l/m 2 min 0 min 423 W/m 9,7 km/h (2 Bft) 97,87 %
11.03.2023 10:12 3,8 C 8,9 C 1,7 C 78 % 1011,3 hPa 0,0 l/m 2 min 0 min 269 W/m 9,7 km/h (2 Bft) 97,87 %
11.03.2023 10:14 3,8 C 8,3 C 2,2 C 77 % 1011,4 hPa 0,0 l/m 2 min 0 min 325 W/m 9,7 km/h (2 Bft) 97,87 %
11.03.2023 10:16 3,9 C 8,3 C 2,2 C 78 % 1011,4 hPa 0,0 l/m 2 min 0 min 271 W/m 6,4 km/h (2 Bft) 97,83 %
11.03.2023 10:18 4,1 C 8,9 C 3,3 C 77 % 1011,4 hPa 0,0 l/m 2 min 0 min 262 W/m 3,2 km/h (1 Bft) 95,74 %
11.03.2023 10:20 4,2 C 10,0 C 3,9 C 76 % 1011,4 hPa 0,0 l/m 2 min 0 min 317 W/m 6,4 km/h (2 Bft) 97,87 %
11.03.2023 10:22 4,2 C 10,0 C 4,4 C 75 % 1011,4 hPa 0,0 l/m 2 min 0 min 343 W/m 6,4 km/h (2 Bft) 95,74 %
11.03.2023 10:24 4,3 C 11,1 C 5,0 C 75 % 1011,4 hPa 0,0 l/m 2 min 0 min 318 W/m 6,4 km/h (2 Bft) 97,87 %
11.03.2023 10:26 4,3 C 10,6 C 5,0 C 74 % 1011,4 hPa 0,0 l/m 2 min 0 min 329 W/m 6,4 km/h (2 Bft) 97,87 %
11.03.2023 10:28 4,4 C 10,6 C 5,0 C 74 % 1011,5 hPa 0,0 l/m 0 min 0 min 195 W/m 6,4 km/h (2 Bft) 97,87 %
11.03.2023 10:30 4,4 C 12,2 C 6,1 C 73 % 1011,5 hPa 0,0 l/m 2 min 0 min 296 W/m 6,4 km/h (2 Bft) 97,83 %
11.03.2023 10:32 4,4 C 12,2 C 6,1 C 73 % 1011,5 hPa 0,0 l/m 2 min 0 min 268 W/m 6,4 km/h (2 Bft) 97,87 %
11.03.2023 10:34 4,6 C 12,8 C 6,7 C 72 % 1011,5 hPa 0,0 l/m 2 min 0 min 315 W/m 6,4 km/h (2 Bft) 97,87 %
11.03.2023 10:36 4,6 C 13,3 C 7,8 C 72 % 1011,5 hPa 0,0 l/m 2 min 0 min 474 W/m 9,7 km/h (2 Bft) 95,74 %
11.03.2023 10:38 4,7 C 12,2 C 7,8 C 72 % 1011,5 hPa 0,0 l/m 2 min 0 min 439 W/m 6,4 km/h (2 Bft) 95,74 %
11.03.2023 10:40 4,7 C 13,3 C 7,8 C 71 % 1011,6 hPa 0,0 l/m 2 min 0 min 502 W/m 12,9 km/h (3 Bft) 97,87 %
11.03.2023 10:42 4,8 C 13,3 C 8,9 C 71 % 1011,6 hPa 0,0 l/m 2 min 0 min 537 W/m 12,9 km/h (3 Bft) 93,62 %
11.03.2023 10:44 4,8 C 13,3 C 8,9 C 71 % 1011,5 hPa 0,0 l/m 2 min 0 min 536 W/m 6,4 km/h (2 Bft) 97,83 %
11.03.2023 10:46 4,9 C 13,9 C 9,4 C 72 % 1011,6 hPa 0,0 l/m 2 min 0 min 518 W/m 16,1 km/h (3 Bft) 93,62 %
11.03.2023 10:48 5,2 C 13,9 C 8,9 C 72 % 1011,5 hPa 0,0 l/m 2 min 0 min 469 W/m 12,9 km/h (3 Bft) 93,62 %
11.03.2023 10:50 5,2 C 12,8 C 8,9 C 71 % 1011,6 hPa 0,0 l/m 2 min 0 min 519 W/m 3,2 km/h (1 Bft) 95,74 %
11.03.2023 10:52 5,3 C 12,8 C 9,4 C 70 % 1011,5 hPa 0,0 l/m 2 min 0 min 537 W/m 6,4 km/h (2 Bft) 91,49 %
11.03.2023 10:54 5,2 C 12,8 C 9,4 C 69 % 1011,5 hPa 0,0 l/m 2 min 0 min 558 W/m 6,4 km/h (2 Bft) 93,62 %
11.03.2023 10:56 5,2 C 11,7 C 8,9 C 69 % 1011,6 hPa 0,0 l/m 2 min 0 min 541 W/m 6,4 km/h (2 Bft) 95,74 %
11.03.2023 10:58 5,1 C 10,6 C 7,8 C 69 % 1011,6 hPa 0,0 l/m 2 min 0 min 289 W/m 9,7 km/h (2 Bft) 95,65 %
11.03.2023 11:00 5,1 C 12,2 C 8,3 C 69 % 1011,6 hPa 0,0 l/m 2 min 0 min 596 W/m 3,2 km/h (1 Bft) 91,49 %
11.03.2023 11:02 5,1 C 12,8 C 8,9 C 69 % 1011,7 hPa 0,0 l/m 2 min 0 min 655 W/m 6,4 km/h (2 Bft) 93,62 %
11.03.2023 11:04 5,1 C 12,8 C 8,9 C 70 % 1011,7 hPa 0,0 l/m 2 min 0 min 696 W/m 6,4 km/h (2 Bft) 95,74 %
11.03.2023 11:06 5,1 C 10,0 C 7,8 C 69 % 1011,7 hPa 0,0 l/m 2 min 0 min 429 W/m 6,4 km/h (2 Bft) 89,83 %
11.03.2023 11:08 5,1 C 8,9 C 6,1 C 67 % 1011,8 hPa 0,0 l/m 0 min 0 min 207 W/m 12,9 km/h (3 Bft) 91,43 %
11.03.2023 11:10 5,0 C 7,2 C 5,0 C 66 % 1011,8 hPa 0,0 l/m 0 min 0 min 184 W/m 9,7 km/h (2 Bft) 91,49 %
11.03.2023 11:12 4,9 C 6,7 C 3,9 C 65 % 1011,8 hPa 0,0 l/m 0 min 0 min 154 W/m 12,9 km/h (3 Bft) 91,30 %
11.03.2023 11:14 4,8 C 5,6 C 3,3 C 65 % 1011,8 hPa 0,0 l/m 0 min 0 min 143 W/m 9,7 km/h (2 Bft) 93,62 %
11.03.2023 11:16 4,8 C 5,6 C 2,8 C 65 % 1011,8 hPa 0,0 l/m 0 min 0 min 150 W/m 3,2 km/h (1 Bft) 95,74 %
11.03.2023 11:18 4,6 C 5,0 C 2,8 C 64 % 1011,9 hPa 0,0 l/m 0 min 0 min 158 W/m 6,4 km/h (2 Bft) 95,74 %
11.03.2023 11:20 4,5 C 5,0 C 2,2 C 64 % 1011,9 hPa 0,0 l/m 0 min 0 min 164 W/m 12,9 km/h (3 Bft) 76,60 %
11.03.2023 11:22 4,4 C 5,0 C 2,2 C 65 % 1011,9 hPa 0,0 l/m 0 min 0 min 177 W/m 9,7 km/h (2 Bft) 48,94 %
11.03.2023 11:24 4,4 C 7,2 C 3,3 C 65 % 1012,0 hPa 0,0 l/m 2 min 0 min 375 W/m 3,2 km/h (1 Bft) 58,70 %
11.03.2023 11:26 4,4 C 10,6 C 5,6 C 65 % 1011,9 hPa 0,0 l/m 2 min 0 min 637 W/m 9,7 km/h (2 Bft) 48,94 %
11.03.2023 11:28 4,5 C 11,7 C 6,7 C 65 % 1012,0 hPa 0,0 l/m 2 min 0 min 676 W/m 9,7 km/h (2 Bft) 59,57 %
11.03.2023 11:30 4,6 C 12,8 C 7,8 C 65 % 1012,0 hPa 0,0 l/m 2 min 0 min 658 W/m 6,4 km/h (2 Bft) 65,96 %
11.03.2023 11:32 4,8 C 12,8 C 7,8 C 66 % 1012,0 hPa 0,0 l/m 2 min 0 min 564 W/m 6,4 km/h (2 Bft) 76,60 %
11.03.2023 11:34 4,9 C 11,7 C 7,2 C 66 % 1012,0 hPa 0,0 l/m 2 min 0 min 418 W/m 9,7 km/h (2 Bft) 85,11 %
11.03.2023 11:36 5,1 C 11,1 C 6,7 C 64 % 1012,0 hPa 0,0 l/m 2 min 0 min 383 W/m 6,4 km/h (2 Bft) 85,11 %
11.03.2023 11:38 5,1 C 10,6 C 6,1 C 65 % 1012,0 hPa 0,0 l/m 2 min 0 min 445 W/m 12,9 km/h (3 Bft) 74,47 %
11.03.2023 11:40 5,2 C 10,6 C 5,6 C 64 % 1012,0 hPa 0,0 l/m 2 min 0 min 404 W/m 12,9 km/h (3 Bft) 63,04 %
11.03.2023 11:42 5,3 C 10,0 C 5,0 C 64 % 1012,0 hPa 0,0 l/m 2 min 0 min 343 W/m 9,7 km/h (2 Bft) 70,21 %
11.03.2023 11:44 5,3 C 9,4 C 5,0 C 63 % 1011,9 hPa 0,0 l/m 2 min 0 min 322 W/m 9,7 km/h (2 Bft) 55,32 %
11.03.2023 11:46 5,2 C 9,4 C 4,4 C 62 % 1012,0 hPa 0,0 l/m 2 min 0 min 327 W/m 12,9 km/h (3 Bft) 63,83 %
11.03.2023 11:48 5,2 C 9,4 C 4,4 C 63 % 1011,9 hPa 0,0 l/m 2 min 0 min 494 W/m 6,4 km/h (2 Bft) 48,94 %
11.03.2023 11:50 5,3 C 10,0 C 5,0 C 63 % 1011,9 hPa 0,0 l/m 2 min 0 min 578 W/m 6,4 km/h (2 Bft) 72,34 %
11.03.2023 11:52 5,3 C 10,0 C 3,9 C 63 % 1011,9 hPa 0,0 l/m 2 min 0 min 490 W/m 6,4 km/h (2 Bft) 84,78 %
11.03.2023 11:54 5,4 C 10,0 C 3,9 C 63 % 1012,0 hPa 0,0 l/m 2 min 0 min 364 W/m 6,4 km/h (2 Bft) 72,34 %
11.03.2023 11:56 5,4 C 9,4 C 3,9 C 62 % 1012,0 hPa 0,0 l/m 2 min 0 min 313 W/m 12,9 km/h (3 Bft) 63,83 %
11.03.2023 11:58 5,4 C 7,8 C 3,3 C 61 % 1011,9 hPa 0,0 l/m 0 min 0 min 271 W/m 6,4 km/h (2 Bft) 80,85 %
11.03.2023 12:00 5,4 C 7,2 C 3,3 C 61 % 1011,9 hPa 0,0 l/m 0 min 0 min 240 W/m 9,7 km/h (2 Bft) 80,85 %
11.03.2023 12:02 5,4 C 7,2 C 2,8 C 61 % 1011,9 hPa 0,0 l/m 0 min 0 min 227 W/m 6,4 km/h (2 Bft) 85,11 %
11.03.2023 12:04 5,3 C 6,7 C 2,8 C 61 % 1011,9 hPa 0,0 l/m 0 min 0 min 220 W/m 3,2 km/h (1 Bft) 97,87 %
11.03.2023 12:07 5,2 C 6,1 C 2,8 C 61 % 1011,9 hPa 0,0 l/m 0 min 0 min 215 W/m 12,9 km/h (3 Bft) 98,57 %
11.03.2023 12:08 5,2 C 6,1 C 2,8 C 62 % 1011,9 hPa 0,0 l/m 0 min 0 min 208 W/m 3,2 km/h (1 Bft) 95,65 %
11.03.2023 12:12 5,1 C 6,1 C 2,8 C 62 % 1011,9 hPa 0,0 l/m 0 min 0 min 200 W/m 6,4 km/h (2 Bft) 96,55 %
11.03.2023 12:14 5,1 C 6,1 C 2,8 C 62 % 1012,0 hPa 0,0 l/m 0 min 0 min 218 W/m 9,7 km/h (2 Bft) 97,87 %
11.03.2023 12:16 4,9 C 6,1 C 2,8 C 62 % 1012,0 hPa 0,0 l/m 0 min 0 min 249 W/m 6,4 km/h (2 Bft) 95,74 %
11.03.2023 12:18 4,9 C 6,7 C 2,8 C 62 % 1012,0 hPa 0,0 l/m 2 min 0 min 307 W/m 3,2 km/h (1 Bft) 97,83 %
11.03.2023 12:20 4,9 C 6,7 C 2,8 C 62 % 1012,1 hPa 0,0 l/m 2 min 0 min 366 W/m 6,4 km/h (2 Bft) 95,74 %
11.03.2023 12:22 4,9 C 6,7 C 2,8 C 62 % 1012,1 hPa 0,0 l/m 2 min 0 min 292 W/m 6,4 km/h (2 Bft) 97,87 %
11.03.2023 12:24 4,9 C 6,7 C 2,8 C 62 % 1012,2 hPa 0,0 l/m 0 min 0 min 268 W/m 6,4 km/h (2 Bft) 93,62 %
11.03.2023 12:26 4,9 C 6,7 C 2,8 C 63 % 1012,1 hPa 0,0 l/m 0 min 0 min 246 W/m 3,2 km/h (1 Bft) 87,23 %
11.03.2023 12:28 4,9 C 6,7 C 2,8 C 62 % 1012,2 hPa 0,0 l/m 0 min 0 min 253 W/m 6,4 km/h (2 Bft) 89,36 %
11.03.2023 12:30 5,0 C 7,2 C 2,8 C 63 % 1012,1 hPa 0,0 l/m 2 min 0 min 285 W/m 12,9 km/h (3 Bft) 87,23 %
11.03.2023 12:32 5,1 C 7,2 C 3,3 C 63 % 1012,1 hPa 0,0 l/m 2 min 0 min 310 W/m 3,2 km/h (1 Bft) 95,65 %
11.03.2023 12:34 5,1 C 7,8 C 3,3 C 64 % 1012,1 hPa 0,0 l/m 2 min 0 min 344 W/m 3,2 km/h (1 Bft) 91,49 %
11.03.2023 12:36 5,2 C 7,8 C 3,3 C 64 % 1012,1 hPa 0,0 l/m 2 min 0 min 349 W/m 6,4 km/h (2 Bft) 95,74 %
11.03.2023 12:38 5,2 C 7,8 C 3,3 C 63 % 1012,1 hPa 0,0 l/m 2 min 0 min 350 W/m 6,4 km/h (2 Bft) 82,98 %
11.03.2023 12:40 5,3 C 7,8 C 3,3 C 63 % 1012,0 hPa 0,0 l/m 2 min 0 min 327 W/m 6,4 km/h (2 Bft) 76,60 %
11.03.2023 12:42 5,3 C 7,8 C 3,3 C 62 % 1012,0 hPa 0,0 l/m 2 min 0 min 315 W/m 3,2 km/h (1 Bft) 89,36 %
11.03.2023 12:44 5,3 C 7,8 C 2,8 C 61 % 1012,0 hPa 0,0 l/m 2 min 0 min 333 W/m 6,4 km/h (2 Bft) 87,23 %
11.03.2023 12:46 5,4 C 8,9 C 2,8 C 60 % 1012,0 hPa 0,0 l/m 2 min 0 min 338 W/m 6,4 km/h (2 Bft) 91,30 %
11.03.2023 12:48 5,4 C 8,9 C 2,8 C 59 % 1012,0 hPa 0,0 l/m 2 min 0 min 339 W/m 3,2 km/h (1 Bft) 85,11 %
11.03.2023 12:50 5,4 C 8,9 C 2,8 C 59 % 1011,8 hPa 0,0 l/m 2 min 0 min 303 W/m 6,4 km/h (2 Bft) 91,49 %
11.03.2023 12:52 5,4 C 8,3 C 2,8 C 59 % 1011,9 hPa 0,0 l/m 0 min 0 min 261 W/m 3,2 km/h (1 Bft) 87,23 %
11.03.2023 12:54 5,4 C 9,4 C 2,8 C 60 % 1012,0 hPa 0,0 l/m 2 min 0 min 375 W/m 3,2 km/h (1 Bft) 85,11 %
11.03.2023 12:56 5,5 C 9,4 C 2,8 C 60 % 1011,9 hPa 0,0 l/m 2 min 0 min 459 W/m 3,2 km/h (1 Bft) 87,23 %
11.03.2023 12:58 5,6 C 9,4 C 2,8 C 60 % 1012,0 hPa 0,0 l/m 0 min 0 min 264 W/m 6,4 km/h (2 Bft) 91,49 %
11.03.2023 13:00 5,6 C 8,3 C 2,2 C 60 % 1012,0 hPa 0,0 l/m 0 min 0 min 247 W/m 9,7 km/h (2 Bft) 86,96 %
11.03.2023 13:02 5,5 C 8,3 C 2,2 C 60 % 1011,9 hPa 0,0 l/m 2 min 0 min 284 W/m 6,4 km/h (2 Bft) 91,49 %
11.03.2023 13:04 5,6 C 9,4 C 2,8 C 61 % 1012,0 hPa 0,0 l/m 2 min 0 min 450 W/m 9,7 km/h (2 Bft) 95,74 %
11.03.2023 13:06 5,7 C 11,7 C 2,8 C 62 % 1012,0 hPa 0,0 l/m 2 min 0 min 589 W/m 3,2 km/h (1 Bft) 93,22 %
11.03.2023 13:08 5,8 C 12,8 C 2,8 C 62 % 1012,0 hPa 0,0 l/m 2 min 0 min 532 W/m 6,4 km/h (2 Bft) 97,14 %
11.03.2023 13:10 5,8 C 12,8 C 3,3 C 61 % 1012,0 hPa 0,0 l/m 2 min 0 min 550 W/m 12,9 km/h (3 Bft) 95,74 %
11.03.2023 13:12 5,9 C 12,2 C 3,3 C 61 % 1012,1 hPa 0,0 l/m 2 min 0 min 524 W/m 6,4 km/h (2 Bft) 89,13 %
11.03.2023 13:14 6,1 C 11,7 C 3,3 C 60 % 1012,1 hPa 0,0 l/m 2 min 0 min 481 W/m 9,7 km/h (2 Bft) 93,62 %
11.03.2023 13:16 6,1 C 11,1 C 3,3 C 59 % 1012,1 hPa 0,0 l/m 2 min 0 min 419 W/m 6,4 km/h (2 Bft) 93,62 %
11.03.2023 13:18 6,1 C 10,0 C 3,3 C 59 % 1012,1 hPa 0,0 l/m 2 min 0 min 365 W/m 6,4 km/h (2 Bft) 97,87 %
11.03.2023 13:20 6,1 C 9,4 C 2,8 C 59 % 1012,1 hPa 0,0 l/m 2 min 0 min 333 W/m 9,7 km/h (2 Bft) 93,62 %
11.03.2023 13:22 6,0 C 8,3 C 2,8 C 59 % 1012,0 hPa 0,0 l/m 2 min 0 min 301 W/m 9,7 km/h (2 Bft) 97,87 %
11.03.2023 13:24 6,0 C 7,8 C 2,8 C 59 % 1012,0 hPa 0,0 l/m 2 min 0 min 303 W/m 6,4 km/h (2 Bft) 97,87 %
11.03.2023 13:26 5,9 C 7,8 C 2,8 C 60 % 1012,1 hPa 0,0 l/m 2 min 0 min 299 W/m 6,4 km/h (2 Bft) 97,83 %
11.03.2023 13:28 5,9 C 7,2 C 2,8 C 60 % 1012,1 hPa 0,0 l/m 2 min 0 min 293 W/m 6,4 km/h (2 Bft) 95,74 %
11.03.2023 13:30 5,9 C 7,2 C 2,8 C 60 % 1012,1 hPa 0,0 l/m 0 min 0 min 267 W/m 6,4 km/h (2 Bft) 97,87 %
11.03.2023 13:32 5,8 C 7,2 C 2,8 C 61 % 1012,1 hPa 0,0 l/m 0 min 0 min 254 W/m 6,4 km/h (2 Bft) 97,87 %
11.03.2023 13:34 5,8 C 7,8 C 2,8 C 61 % 1012,1 hPa 0,0 l/m 0 min 0 min 246 W/m 6,4 km/h (2 Bft) 97,87 %
11.03.2023 13:36 5,8 C 7,8 C 2,8 C 60 % 1012,0 hPa 0,0 l/m 2 min 0 min 289 W/m 9,7 km/h (2 Bft) 95,74 %
11.03.2023 13:38 5,8 C 8,9 C 2,8 C 61 % 1012,1 hPa 0,0 l/m 2 min 0 min 390 W/m 3,2 km/h (1 Bft) 95,74 %
11.03.2023 13:40 5,9 C 9,4 C 2,8 C 61 % 1012,1 hPa 0,0 l/m 2 min 0 min 386 W/m 6,4 km/h (2 Bft) 97,83 %
11.03.2023 13:42 5,9 C 9,4 C 2,8 C 61 % 1012,1 hPa 0,0 l/m 0 min 0 min 268 W/m 6,4 km/h (2 Bft) 87,23 %
11.03.2023 13:44 6,0 C 8,9 C 2,8 C 61 % 1012,1 hPa 0,0 l/m 0 min 0 min 261 W/m 9,7 km/h (2 Bft) 63,83 %
11.03.2023 13:46 6,1 C 9,4 C 2,8 C 61 % 1012,1 hPa 0,0 l/m 2 min 0 min 339 W/m 6,4 km/h (2 Bft) 89,36 %
11.03.2023 13:48 6,1 C 8,9 C 2,8 C 60 % 1012,1 hPa 0,0 l/m 0 min 0 min 269 W/m 6,4 km/h (2 Bft) 95,74 %
11.03.2023 13:50 5,9 C 9,4 C 2,8 C 59 % 1012,0 hPa 0,0 l/m 2 min 0 min 276 W/m 6,4 km/h (2 Bft) 97,87 %
11.03.2023 13:52 6,0 C 11,1 C 2,8 C 60 % 1011,9 hPa 0,0 l/m 2 min 0 min 422 W/m 9,7 km/h (2 Bft) 97,83 %
11.03.2023 13:54 6,1 C 11,7 C 2,8 C 61 % 1011,9 hPa 0,0 l/m 2 min 0 min 468 W/m 9,7 km/h (2 Bft) 53,33 %
11.03.2023 13:56 6,2 C 12,8 C 2,8 C 60 % 1011,9 hPa 0,0 l/m 2 min 0 min 430 W/m 6,4 km/h (2 Bft) 97,87 %
11.03.2023 13:58 6,4 C 12,2 C 2,8 C 61 % 1011,9 hPa 0,0 l/m 2 min 0 min 505 W/m 9,7 km/h (2 Bft) 97,87 %
11.03.2023 14:00 6,5 C 10,6 C 2,8 C 61 % 1011,9 hPa 0,0 l/m 2 min 0 min 405 W/m 12,9 km/h (3 Bft) 95,74 %
11.03.2023 14:02 6,5 C 10,0 C 2,8 C 60 % 1011,9 hPa 0,0 l/m 2 min 0 min 270 W/m 9,7 km/h (2 Bft) 97,87 %
11.03.2023 14:04 6,5 C 10,0 C 2,2 C 60 % 1011,9 hPa 0,0 l/m 2 min 0 min 344 W/m 3,2 km/h (1 Bft) 97,87 %
11.03.2023 14:06 6,6 C 12,2 C 2,2 C 60 % 1011,9 hPa 0,0 l/m 2 min 0 min 449 W/m 3,2 km/h (1 Bft) 97,87 %
11.03.2023 14:08 6,7 C 12,8 C 2,8 C 60 % 1011,9 hPa 0,0 l/m 2 min 0 min 565 W/m 6,4 km/h (2 Bft) 97,87 %
11.03.2023 14:10 6,8 C 13,3 C 2,8 C 60 % 1011,8 hPa 0,0 l/m 2 min 0 min 636 W/m 6,4 km/h (2 Bft) 97,87 %
11.03.2023 14:12 6,9 C 12,2 C 2,8 C 59 % 1011,9 hPa 0,0 l/m 2 min 0 min 613 W/m 12,9 km/h (3 Bft) 97,87 %
11.03.2023 14:14 6,9 C 12,2 C 2,8 C 59 % 1011,9 hPa 0,0 l/m 2 min 0 min 603 W/m 6,4 km/h (2 Bft) 95,74 %
11.03.2023 14:16 7,0 C 12,2 C 2,8 C 59 % 1011,9 hPa 0,0 l/m 2 min 0 min 615 W/m 6,4 km/h (2 Bft) 97,87 %
11.03.2023 14:18 7,1 C 12,2 C 2,8 C 59 % 1011,8 hPa 0,0 l/m 2 min 0 min 632 W/m 16,1 km/h (3 Bft) 97,83 %
11.03.2023 14:20 7,1 C 10,6 C 2,8 C 59 % 1011,8 hPa 0,0 l/m 2 min 0 min 636 W/m 12,9 km/h (3 Bft) 97,87 %
11.03.2023 14:22 7,0 C 11,1 C 2,2 C 59 % 1011,8 hPa 0,0 l/m 2 min 0 min 632 W/m 3,2 km/h (1 Bft) 97,87 %
11.03.2023 14:24 7,1 C 11,7 C 2,8 C 61 % 1011,9 hPa 0,0 l/m 2 min 0 min 632 W/m 3,2 km/h (1 Bft) 97,87 %
11.03.2023 14:26 7,2 C 12,2 C 2,8 C 59 % 1011,9 hPa 0,0 l/m 2 min 0 min 640 W/m 3,2 km/h (1 Bft) 97,87 %
11.03.2023 14:28 7,3 C 11,7 C 2,8 C 59 % 1011,8 hPa 0,0 l/m 2 min 0 min 582 W/m 6,4 km/h (2 Bft) 97,87 %
11.03.2023 14:30 7,2 C 11,1 C 2,8 C 58 % 1011,8 hPa 0,0 l/m 2 min 0 min 582 W/m 12,9 km/h (3 Bft) 95,74 %
11.03.2023 14:32 7,1 C 11,7 C 2,2 C 58 % 1011,8 hPa 0,0 l/m 2 min 0 min 567 W/m 6,4 km/h (2 Bft) 97,87 %
11.03.2023 14:34 7,1 C 10,6 C 2,2 C 57 % 1011,8 hPa 0,0 l/m 2 min 0 min 600 W/m 6,4 km/h (2 Bft) 97,83 %
11.03.2023 14:36 7,2 C 11,7 C 2,2 C 58 % 1011,7 hPa 0,0 l/m 2 min 0 min 565 W/m 3,2 km/h (1 Bft) 100,00 %
11.03.2023 14:38 7,3 C 12,2 C 2,8 C 58 % 1011,7 hPa 0,0 l/m 2 min 0 min 591 W/m 9,7 km/h (2 Bft) 100,00 %
11.03.2023 14:40 7,3 C 10,6 C 2,8 C 57 % 1011,8 hPa 0,0 l/m 2 min 0 min 439 W/m 6,4 km/h (2 Bft) 100,00 %
11.03.2023 14:42 7,2 C 9,4 C 2,2 C 57 % 1011,8 hPa 0,0 l/m 0 min 0 min 118 W/m 6,4 km/h (2 Bft) 100,00 %
11.03.2023 14:44 7,1 C 8,9 C 2,2 C 57 % 1011,8 hPa 0,0 l/m 0 min 0 min 145 W/m 3,2 km/h (1 Bft) 97,87 %
11.03.2023 14:46 7,1 C 9,4 C 2,2 C 58 % 1011,8 hPa 0,0 l/m 2 min 0 min 362 W/m 3,2 km/h (1 Bft) 97,87 %
11.03.2023 14:48 7,0 C 10,0 C 2,2 C 59 % 1011,8 hPa 0,0 l/m 2 min 0 min 524 W/m 6,4 km/h (2 Bft) 100,00 %
11.03.2023 14:50 7,0 C 9,4 C 2,2 C 59 % 1011,9 hPa 0,0 l/m 2 min 0 min 265 W/m 6,4 km/h (2 Bft) 100,00 %
11.03.2023 14:52 7,0 C 10,6 C 2,8 C 59 % 1011,8 hPa 0,0 l/m 2 min 0 min 468 W/m 6,4 km/h (2 Bft) 97,87 %
11.03.2023 14:54 7,0 C 11,7 C 2,8 C 59 % 1011,8 hPa 0,0 l/m 2 min 0 min 546 W/m 6,4 km/h (2 Bft) 100,00 %
11.03.2023 14:56 7,0 C 11,7 C 2,8 C 59 % 1011,9 hPa 0,0 l/m 2 min 0 min 531 W/m 6,4 km/h (2 Bft) 97,87 %
11.03.2023 14:58 7,1 C 11,7 C 2,8 C 59 % 1011,9 hPa 0,0 l/m 2 min 0 min 530 W/m 9,7 km/h (2 Bft) 100,00 %
11.03.2023 15:00 7,1 C 11,1 C 2,2 C 57 % 1011,9 hPa 0,0 l/m 2 min 0 min 525 W/m 6,4 km/h (2 Bft) 100,00 %
11.03.2023 15:02 7,1 C 10,0 C 2,2 C 57 % 1011,9 hPa 0,0 l/m 2 min 0 min 519 W/m 6,4 km/h (2 Bft) 100,00 %
11.03.2023 15:04 7,2 C 10,0 C 2,8 C 57 % 1011,9 hPa 0,0 l/m 2 min 0 min 510 W/m 9,7 km/h (2 Bft) 100,00 %
11.03.2023 15:06 7,2 C 10,0 C 2,8 C 57 % 1011,9 hPa 0,0 l/m 2 min 0 min 514 W/m 3,2 km/h (1 Bft) 100,00 %
11.03.2023 15:08 7,3 C 10,0 C 2,8 C 58 % 1011,9 hPa 0,0 l/m 2 min 0 min 517 W/m 6,4 km/h (2 Bft) 97,87 %
11.03.2023 15:10 7,3 C 10,6 C 2,8 C 58 % 1012,0 hPa 0,0 l/m 2 min 0 min 517 W/m 9,7 km/h (2 Bft) 100,00 %
11.03.2023 15:12 7,4 C 10,6 C 2,8 C 57 % 1011,8 hPa 0,0 l/m 2 min 0 min 509 W/m 6,4 km/h (2 Bft) 100,00 %
11.03.2023 15:14 7,5 C 10,6 C 2,8 C 56 % 1011,8 hPa 0,0 l/m 2 min 0 min 493 W/m 12,9 km/h (3 Bft) 100,00 %
11.03.2023 15:16 7,5 C 10,0 C 2,8 C 56 % 1011,9 hPa 0,0 l/m 2 min 0 min 494 W/m 12,9 km/h (3 Bft) 97,87 %
11.03.2023 15:18 7,5 C 10,0 C 3,3 C 56 % 1011,9 hPa 0,0 l/m 2 min 0 min 490 W/m 6,4 km/h (2 Bft) 100,00 %
11.03.2023 15:20 7,4 C 10,6 C 2,8 C 55 % 1011,9 hPa 0,0 l/m 2 min 0 min 479 W/m 6,4 km/h (2 Bft) 100,00 %
11.03.2023 15:22 7,4 C 10,0 C 2,8 C 55 % 1011,9 hPa 0,0 l/m 2 min 0 min 474 W/m 12,9 km/h (3 Bft) 100,00 %
11.03.2023 15:24 7,4 C 9,4 C 2,8 C 55 % 1011,9 hPa 0,0 l/m 2 min 0 min 470 W/m 12,9 km/h (3 Bft) 100,00 %
11.03.2023 15:26 7,3 C 9,4 C 2,8 C 53 % 1011,9 hPa 0,0 l/m 2 min 0 min 475 W/m 16,1 km/h (3 Bft) 97,87 %
11.03.2023 15:28 7,3 C 8,9 C 2,2 C 54 % 1012,0 hPa 0,0 l/m 2 min 0 min 475 W/m 6,4 km/h (2 Bft) 100,00 %
11.03.2023 15:30 7,3 C 8,9 C 2,8 C 55 % 1012,0 hPa 0,0 l/m 2 min 0 min 474 W/m 3,2 km/h (1 Bft) 100,00 %
11.03.2023 15:32 7,4 C 8,9 C 2,8 C 55 % 1012,0 hPa 0,0 l/m 2 min 0 min 470 W/m 6,4 km/h (2 Bft) 100,00 %
11.03.2023 15:34 7,4 C 8,9 C 2,8 C 55 % 1012,0 hPa 0,0 l/m 2 min 0 min 465 W/m 12,9 km/h (3 Bft) 100,00 %
11.03.2023 15:36 7,4 C 10,0 C 2,8 C 55 % 1012,0 hPa 0,0 l/m 2 min 0 min 460 W/m 12,9 km/h (3 Bft) 100,00 %
11.03.2023 15:38 7,6 C 11,1 C 2,8 C 56 % 1012,0 hPa 0,0 l/m 2 min 0 min 444 W/m 6,4 km/h (2 Bft) 100,00 %
11.03.2023 15:40 7,5 C 11,1 C 2,8 C 55 % 1012,0 hPa 0,0 l/m 2 min 0 min 456 W/m 6,4 km/h (2 Bft) 100,00 %
11.03.2023 15:42 7,6 C 11,1 C 2,8 C 56 % 1012,1 hPa 0,0 l/m 2 min 0 min 459 W/m 3,2 km/h (1 Bft) 100,00 %
11.03.2023 15:44 7,6 C 11,7 C 2,8 C 56 % 1012,1 hPa 0,0 l/m 2 min 0 min 430 W/m 12,9 km/h (3 Bft) 100,00 %
11.03.2023 15:46 7,7 C 11,7 C 3,3 C 55 % 1012,1 hPa 0,0 l/m 2 min 0 min 387 W/m 6,4 km/h (2 Bft) 97,87 %
11.03.2023 15:48 7,8 C 11,7 C 2,8 C 56 % 1012,1 hPa 0,0 l/m 2 min 0 min 362 W/m 12,9 km/h (3 Bft) 100,00 %
11.03.2023 15:50 7,8 C 11,7 C 2,8 C 55 % 1012,1 hPa 0,0 l/m 2 min 0 min 372 W/m 12,9 km/h (3 Bft) 100,00 %
11.03.2023 15:52 7,8 C 11,1 C 2,8 C 55 % 1012,1 hPa 0,0 l/m 2 min 0 min 355 W/m 9,7 km/h (2 Bft) 100,00 %
11.03.2023 15:54 7,8 C 10,0 C 2,2 C 55 % 1012,0 hPa 0,0 l/m 2 min 0 min 365 W/m 6,4 km/h (2 Bft) 100,00 %
11.03.2023 15:56 7,8 C 10,0 C 2,2 C 55 % 1012,1 hPa 0,0 l/m 2 min 0 min 368 W/m 6,4 km/h (2 Bft) 100,00 %
11.03.2023 15:58 7,8 C 10,6 C 2,2 C 55 % 1012,1 hPa 0,0 l/m 2 min 0 min 369 W/m 9,7 km/h (2 Bft) 97,87 %
11.03.2023 16:00 7,8 C 10,6 C 2,2 C 56 % 1012,1 hPa 0,0 l/m 2 min 0 min 364 W/m 6,4 km/h (2 Bft) 97,87 %
11.03.2023 16:02 7,8 C 10,6 C 2,2 C 55 % 1012,1 hPa 0,0 l/m 2 min 0 min 359 W/m 6,4 km/h (2 Bft) 97,87 %
11.03.2023 16:04 7,6 C 10,0 C 2,2 C 55 % 1012,1 hPa 0,0 l/m 2 min 0 min 317 W/m 9,7 km/h (2 Bft) 95,74 %
11.03.2023 16:06 7,6 C 9,4 C 2,2 C 55 % 1012,1 hPa 0,0 l/m 2 min 0 min 276 W/m 9,7 km/h (2 Bft) 97,83 %
11.03.2023 16:08 7,5 C 9,4 C 2,2 C 55 % 1012,2 hPa 0,0 l/m 2 min 0 min 310 W/m 6,4 km/h (2 Bft) 97,87 %
11.03.2023 16:10 7,4 C 9,4 C 2,2 C 55 % 1012,2 hPa 0,0 l/m 2 min 0 min 355 W/m 6,4 km/h (2 Bft) 95,74 %
11.03.2023 16:12 7,3 C 9,4 C 2,2 C 55 % 1012,2 hPa 0,0 l/m 2 min 0 min 344 W/m 9,7 km/h (2 Bft) 93,62 %
11.03.2023 16:14 7,3 C 9,4 C 2,2 C 55 % 1012,1 hPa 0,0 l/m 2 min 0 min 325 W/m 3,2 km/h (1 Bft) 97,87 %
11.03.2023 16:16 7,3 C 10,0 C 2,2 C 55 % 1012,2 hPa 0,0 l/m 2 min 0 min 354 W/m 6,4 km/h (2 Bft) 97,87 %
11.03.2023 16:18 7,2 C 9,4 C 2,2 C 55 % 1012,2 hPa 0,0 l/m 2 min 0 min 332 W/m 16,1 km/h (3 Bft) 97,87 %
11.03.2023 16:20 7,1 C 9,4 C 2,2 C 55 % 1012,2 hPa 0,0 l/m 2 min 0 min 329 W/m 19,3 km/h (3 Bft) 97,83 %
11.03.2023 16:22 7,1 C 9,4 C 2,2 C 55 % 1012,2 hPa 0,0 l/m 2 min 0 min 309 W/m 9,7 km/h (2 Bft) 95,74 %
11.03.2023 16:24 7,1 C 8,9 C 2,2 C 56 % 1012,1 hPa 0,0 l/m 2 min 0 min 292 W/m 12,9 km/h (3 Bft) 97,87 %
11.03.2023 16:26 7,1 C 8,3 C 2,2 C 56 % 1012,1 hPa 0,0 l/m 2 min 0 min 295 W/m 6,4 km/h (2 Bft) 97,87 %
11.03.2023 16:28 7,1 C 7,8 C 2,2 C 56 % 1012,1 hPa 0,0 l/m 2 min 0 min 276 W/m 3,2 km/h (1 Bft) 91,49 %
11.03.2023 16:30 7,0 C 7,2 C 2,2 C 56 % 1012,1 hPa 0,0 l/m 2 min 0 min 231 W/m 9,7 km/h (2 Bft) 93,62 %
11.03.2023 16:32 7,1 C 7,2 C 2,2 C 56 % 1012,1 hPa 0,0 l/m 2 min 0 min 253 W/m 3,2 km/h (1 Bft) 95,74 %
11.03.2023 16:34 7,1 C 7,2 C 2,2 C 57 % 1012,1 hPa 0,0 l/m 2 min 0 min 272 W/m 3,2 km/h (1 Bft) 95,65 %
11.03.2023 16:36 7,1 C 7,2 C 2,2 C 55 % 1012,1 hPa 0,0 l/m 2 min 0 min 299 W/m 3,2 km/h (1 Bft) 97,87 %
11.03.2023 16:38 7,0 C 6,7 C 2,2 C 55 % 1012,1 hPa 0,0 l/m 2 min 0 min 285 W/m 3,2 km/h (1 Bft) 95,74 %
11.03.2023 16:40 6,9 C 6,7 C 2,2 C 55 % 1012,1 hPa 0,0 l/m 2 min 0 min 276 W/m 6,4 km/h (2 Bft) 97,87 %
11.03.2023 16:42 6,9 C 6,7 C 2,2 C 55 % 1012,1 hPa 0,0 l/m 2 min 0 min 305 W/m 6,4 km/h (2 Bft) 97,87 %
11.03.2023 16:44 6,8 C 6,7 C 2,2 C 55 % 1012,1 hPa 0,0 l/m 2 min 0 min 278 W/m 9,7 km/h (2 Bft) 100,00 %
11.03.2023 16:46 6,8 C 6,7 C 2,2 C 55 % 1012,2 hPa 0,0 l/m 2 min 0 min 259 W/m 6,4 km/h (2 Bft) 95,65 %
11.03.2023 16:48 6,8 C 6,7 C 2,2 C 55 % 1012,2 hPa 0,0 l/m 2 min 0 min 242 W/m 3,2 km/h (1 Bft) 97,87 %
11.03.2023 16:50 6,8 C 6,7 C 2,2 C 56 % 1012,1 hPa 0,0 l/m 2 min 0 min 243 W/m 6,4 km/h (2 Bft) 97,87 %
11.03.2023 16:52 6,8 C 6,7 C 2,2 C 56 % 1012,1 hPa 0,0 l/m 2 min 0 min 212 W/m 6,4 km/h (2 Bft) 95,74 %
11.03.2023 16:54 6,8 C 6,7 C 2,2 C 56 % 1012,1 hPa 0,0 l/m 2 min 0 min 247 W/m 6,4 km/h (2 Bft) 95,74 %
11.03.2023 16:56 6,8 C 6,7 C 2,2 C 55 % 1012,1 hPa 0,0 l/m 2 min 0 min 234 W/m 6,4 km/h (2 Bft) 95,74 %
11.03.2023 16:58 6,7 C 6,7 C 2,2 C 56 % 1012,1 hPa 0,0 l/m 2 min 0 min 226 W/m 9,7 km/h (2 Bft) 95,74 %
11.03.2023 17:00 6,6 C 6,1 C 2,2 C 55 % 1012,1 hPa 0,0 l/m 2 min 0 min 227 W/m 6,4 km/h (2 Bft) 95,74 %
11.03.2023 17:02 6,6 C 6,1 C 2,2 C 56 % 1012,1 hPa 0,0 l/m 2 min 0 min 202 W/m 6,4 km/h (2 Bft) 97,83 %
11.03.2023 17:04 6,6 C 6,1 C 2,2 C 55 % 1012,1 hPa 0,0 l/m 2 min 0 min 187 W/m 6,4 km/h (2 Bft) 95,74 %
11.03.2023 17:06 6,6 C 6,1 C 2,2 C 56 % 1012,1 hPa 0,0 l/m 2 min 0 min 190 W/m 12,9 km/h (3 Bft) 95,74 %
11.03.2023 17:08 6,6 C 6,1 C 2,2 C 57 % 1012,1 hPa 0,0 l/m 2 min 0 min 185 W/m 6,4 km/h (2 Bft) 95,74 %
11.03.2023 17:10 6,5 C 6,1 C 2,2 C 56 % 1012,1 hPa 0,0 l/m 2 min 0 min 169 W/m 6,4 km/h (2 Bft) 95,74 %
11.03.2023 17:12 6,5 C 6,1 C 1,7 C 57 % 1012,1 hPa 0,0 l/m 2 min 0 min 128 W/m 6,4 km/h (2 Bft) 95,74 %
11.03.2023 17:14 6,5 C 6,1 C 1,7 C 57 % 1012,0 hPa 0,0 l/m 0 min 0 min 78 W/m 9,7 km/h (2 Bft) 95,65 %
11.03.2023 17:16 6,4 C 6,1 C 1,7 C 57 % 1012,1 hPa 0,0 l/m 0 min 0 min 74 W/m 9,7 km/h (2 Bft) 93,62 %
11.03.2023 17:18 6,4 C 6,1 C 1,7 C 57 % 1012,0 hPa 0,0 l/m 0 min 0 min 70 W/m 12,9 km/h (3 Bft) 95,74 %
11.03.2023 17:20 6,3 C 5,6 C 1,7 C 58 % 1012,0 hPa 0,0 l/m 0 min 0 min 68 W/m 19,3 km/h (3 Bft) 93,62 %
11.03.2023 17:22 6,3 C 5,6 C 1,7 C 58 % 1012,1 hPa 0,0 l/m 0 min 0 min 65 W/m 9,7 km/h (2 Bft) 95,74 %
11.03.2023 17:24 6,2 C 5,6 C 1,7 C 58 % 1012,1 hPa 0,0 l/m 0 min 0 min 65 W/m 3,2 km/h (1 Bft) 95,74 %
11.03.2023 17:26 6,2 C 5,6 C 1,7 C 58 % 1012,1 hPa 0,0 l/m 0 min 0 min 63 W/m 6,4 km/h (2 Bft) 95,74 %
11.03.2023 17:28 6,2 C 5,6 C 1,7 C 58 % 1012,2 hPa 0,0 l/m 0 min 0 min 60 W/m 6,4 km/h (2 Bft) 97,56 %
11.03.2023 17:30 6,1 C 5,6 C 1,1 C 58 % 1012,1 hPa 0,0 l/m 0 min 0 min 63 W/m 3,2 km/h (1 Bft) 93,48 %
11.03.2023 17:32 6,1 C 5,6 C 1,1 C 58 % 1012,2 hPa 0,0 l/m 0 min 0 min 64 W/m 0,0 km/h (0 Bft) 95,74 %
11.03.2023 17:34 6,1 C 5,6 C 1,1 C 58 % 1012,1 hPa 0,0 l/m 0 min 0 min 65 W/m 0,0 km/h (0 Bft) 95,74 %
11.03.2023 17:36 6,0 C 5,6 C 1,1 C 59 % 1012,1 hPa 0,0 l/m 2 min 0 min 67 W/m 6,4 km/h (2 Bft) 95,74 %
11.03.2023 17:38 6,0 C 5,6 C 1,7 C 60 % 1012,1 hPa 0,0 l/m 2 min 0 min 66 W/m 6,4 km/h (2 Bft) 93,62 %
11.03.2023 17:40 5,9 C 5,6 C 1,7 C 60 % 1012,2 hPa 0,0 l/m 2 min 0 min 63 W/m 6,4 km/h (2 Bft) 95,74 %
11.03.2023 17:42 5,9 C 5,6 C 1,7 C 60 % 1012,1 hPa 0,0 l/m 0 min 0 min 58 W/m 3,2 km/h (1 Bft) 95,74 %
11.03.2023 17:44 5,9 C 5,6 C 1,1 C 60 % 1012,1 hPa 0,0 l/m 2 min 0 min 56 W/m 3,2 km/h (1 Bft) 95,65 %
11.03.2023 17:46 5,9 C 5,6 C 1,1 C 60 % 1012,2 hPa 0,0 l/m 2 min 0 min 56 W/m 3,2 km/h (1 Bft) 97,87 %
11.03.2023 17:48 5,9 C 5,6 C 1,1 C 60 % 1012,1 hPa 0,0 l/m 2 min 0 min 56 W/m 0,0 km/h (0 Bft) 97,87 %
11.03.2023 17:50 5,9 C 5,0 C 1,1 C 60 % 1012,2 hPa 0,0 l/m 2 min 0 min 54 W/m 3,2 km/h (1 Bft) 97,87 %
11.03.2023 17:52 5,8 C 5,0 C 1,1 C 60 % 1012,2 hPa 0,0 l/m 2 min 0 min 53 W/m 3,2 km/h (1 Bft) 93,62 %
11.03.2023 17:54 5,8 C 5,0 C 1,1 C 60 % 1012,2 hPa 0,0 l/m 2 min 0 min 46 W/m 3,2 km/h (1 Bft) 100,00 %
11.03.2023 17:56 5,8 C 5,0 C 1,1 C 61 % 1012,2 hPa 0,0 l/m 2 min 0 min 44 W/m 3,2 km/h (1 Bft) 97,87 %
11.03.2023 17:58 5,8 C 5,0 C 1,1 C 61 % 1012,2 hPa 0,0 l/m 2 min 0 min 40 W/m 6,4 km/h (2 Bft) 97,14 %
11.03.2023 18:00 5,8 C 5,0 C 1,1 C 61 % 1012,2 hPa 0,0 l/m 2 min 0 min 37 W/m 6,4 km/h (2 Bft) 98,44 %
11.03.2023 18:02 5,8 C 5,0 C 1,1 C 61 % 1012,3 hPa 0,0 l/m 2 min 0 min 33 W/m 3,2 km/h (1 Bft) 97,87 %
11.03.2023 18:04 5,7 C 5,0 C 1,1 C 62 % 1012,3 hPa 0,0 l/m 2 min 0 min 33 W/m 3,2 km/h (1 Bft) 97,87 %
11.03.2023 18:07 5,7 C 4,4 C 0,6 C 61 % 1012,3 hPa 0,0 l/m 3 min 0 min 29 W/m 0,0 km/h (0 Bft) 95,83 %
11.03.2023 18:08 5,7 C 4,4 C 0,6 C 61 % 1012,3 hPa 0,0 l/m 1 min 0 min 26 W/m 0,0 km/h (0 Bft) 100,00 %
11.03.2023 18:12 5,6 C 4,4 C 0,6 C 62 % 1012,2 hPa 0,0 l/m 4 min 0 min 20 W/m 0,0 km/h (0 Bft) 94,44 %
11.03.2023 18:14 5,6 C 3,9 C 0,6 C 62 % 1012,3 hPa 0,0 l/m 0 min 0 min 17 W/m 0,0 km/h (0 Bft) 97,87 %
11.03.2023 18:16 5,6 C 3,9 C 0,6 C 62 % 1012,2 hPa 0,0 l/m 0 min 0 min 15 W/m 0,0 km/h (0 Bft) 97,87 %
11.03.2023 18:18 5,6 C 3,9 C 0,0 C 63 % 1012,2 hPa 0,0 l/m 0 min 0 min 12 W/m 0,0 km/h (0 Bft) 95,74 %
11.03.2023 18:20 5,6 C 3,9 C 0,0 C 63 % 1012,3 hPa 0,0 l/m 0 min 0 min 11 W/m 0,0 km/h (0 Bft) 97,87 %
11.03.2023 18:22 5,6 C 3,3 C 0,0 C 63 % 1012,4 hPa 0,0 l/m 0 min 0 min 8 W/m 0,0 km/h (0 Bft) 97,87 %
11.03.2023 18:24 5,5 C 3,3 C -0,6 C 63 % 1012,4 hPa 0,0 l/m 0 min 0 min 7 W/m 0,0 km/h (0 Bft) 97,83 %
11.03.2023 18:26 5,4 C 3,3 C -0,6 C 63 % 1012,4 hPa 0,0 l/m 0 min 0 min 5 W/m 0,0 km/h (0 Bft) 97,87 %
11.03.2023 18:28 5,4 C 3,3 C -0,6 C 64 % 1012,5 hPa 0,0 l/m 0 min 0 min 5 W/m 0,0 km/h (0 Bft) 97,87 %
11.03.2023 18:30 5,3 C 2,8 C -0,6 C 64 % 1012,5 hPa 0,0 l/m 0 min 0 min 3 W/m 0,0 km/h (0 Bft) 97,87 %
11.03.2023 18:32 5,3 C 2,8 C -0,6 C 64 % 1012,4 hPa 0,0 l/m 0 min 0 min 0 W/m 0,0 km/h (0 Bft) 95,74 %
11.03.2023 18:34 5,2 C 2,8 C -1,1 C 64 % 1012,5 hPa 0,0 l/m 0 min 0 min 0 W/m 0,0 km/h (0 Bft) 95,74 %
11.03.2023 18:36 5,2 C 2,8 C -1,1 C 63 % 1012,4 hPa 0,0 l/m 0 min 0 min 0 W/m 3,2 km/h (1 Bft) 97,83 %
11.03.2023 18:38 5,1 C 3,3 C -0,6 C 63 % 1012,4 hPa 0,0 l/m 0 min 0 min 0 W/m 3,2 km/h (1 Bft) 95,74 %
11.03.2023 18:40 5,0 C 2,8 C -0,6 C 63 % 1012,4 hPa 0,0 l/m 0 min 0 min 0 W/m 3,2 km/h (1 Bft) 97,87 %
11.03.2023 18:42 4,9 C 2,8 C -0,6 C 64 % 1012,4 hPa 0,0 l/m 0 min 0 min 0 W/m 0,0 km/h (0 Bft) 97,87 %
11.03.2023 18:44 4,8 C 2,8 C -0,6 C 64 % 1012,4 hPa 0,0 l/m 0 min 0 min 0 W/m 3,2 km/h (1 Bft) 97,87 %
11.03.2023 18:46 4,8 C 2,8 C -1,1 C 65 % 1012,4 hPa 0,0 l/m 0 min 0 min 0 W/m 0,0 km/h (0 Bft) 95,74 %
11.03.2023 18:48 4,7 C 2,8 C -1,1 C 65 % 1012,5 hPa 0,0 l/m 0 min 0 min 0 W/m 3,2 km/h (1 Bft) 97,87 %
11.03.2023 18:50 4,6 C 2,8 C -1,1 C 65 % 1012,5 hPa 0,0 l/m 0 min 0 min 0 W/m 0,0 km/h (0 Bft) 97,83 %
11.03.2023 18:52 4,6 C 2,8 C -1,1 C 66 % 1012,6 hPa 0,0 l/m 0 min 0 min 0 W/m 0,0 km/h (0 Bft) 98,04 %
11.03.2023 18:54 4,6 C 2,2 C -1,1 C 66 % 1012,5 hPa 0,0 l/m 0 min 0 min 0 W/m 0,0 km/h (0 Bft) 97,87 %
11.03.2023 18:56 4,5 C 2,2 C -1,7 C 67 % 1012,5 hPa 0,0 l/m 0 min 0 min 0 W/m 0,0 km/h (0 Bft) 95,74 %
11.03.2023 18:58 4,4 C 2,2 C -1,7 C 67 % 1012,5 hPa 0,0 l/m 0 min 0 min 0 W/m 0,0 km/h (0 Bft) 97,87 %
11.03.2023 19:00 4,4 C 1,7 C -1,7 C 68 % 1012,5 hPa 0,0 l/m 0 min 0 min 0 W/m 0,0 km/h (0 Bft) 97,87 %
11.03.2023 19:02 4,3 C 1,7 C -1,7 C 68 % 1012,6 hPa 0,0 l/m 0 min 0 min 0 W/m 0,0 km/h (0 Bft) 97,87 %
11.03.2023 19:04 4,3 C 1,7 C -1,7 C 68 % 1012,6 hPa 0,0 l/m 0 min 0 min 0 W/m 0,0 km/h (0 Bft) 97,83 %
11.03.2023 19:06 4,2 C 1,7 C -1,7 C 69 % 1012,6 hPa 0,0 l/m 0 min 0 min 0 W/m 0,0 km/h (0 Bft) 97,87 %
11.03.2023 19:08 4,2 C 1,7 C -2,2 C 69 % 1012,6 hPa 0,0 l/m 0 min 0 min 0 W/m 3,2 km/h (1 Bft) 97,87 %
11.03.2023 19:10 4,1 C 1,7 C -1,7 C 69 % 1012,6 hPa 0,0 l/m 0 min 0 min 0 W/m 3,2 km/h (1 Bft) 97,87 %
11.03.2023 19:12 3,9 C 2,2 C -1,7 C 69 % 1012,6 hPa 0,0 l/m 0 min 0 min 0 W/m 6,4 km/h (2 Bft) 97,87 %
11.03.2023 19:14 3,9 C 2,2 C -1,1 C 69 % 1012,7 hPa 0,0 l/m 0 min 0 min 0 W/m 3,2 km/h (1 Bft) 95,74 %
11.03.2023 19:16 3,8 C 2,2 C -1,1 C 68 % 1012,6 hPa 0,0 l/m 0 min 0 min 0 W/m 3,2 km/h (1 Bft) 95,74 %
11.03.2023 19:18 3,7 C 2,2 C -1,1 C 68 % 1012,6 hPa 0,0 l/m 0 min 0 min 0 W/m 6,4 km/h (2 Bft) 93,48 %
11.03.2023 19:20 3,7 C 2,8 C -1,1 C 68 % 1012,6 hPa 0,0 l/m 0 min 0 min 0 W/m 3,2 km/h (1 Bft) 38,89 %
11.03.2023 19:22 3,7 C 2,8 C -1,1 C 68 % 1012,6 hPa 0,0 l/m 0 min 0 min 0 W/m 3,2 km/h (1 Bft) 97,87 %
11.03.2023 19:24 3,6 C 2,8 C -1,1 C 68 % 1012,6 hPa 0,0 l/m 0 min 0 min 0 W/m 3,2 km/h (1 Bft) 97,87 %
11.03.2023 19:26 3,6 C 2,8 C -1,1 C 68 % 1012,6 hPa 0,0 l/m 0 min 0 min 0 W/m 3,2 km/h (1 Bft) 97,87 %
11.03.2023 19:28 3,6 C 2,8 C -0,6 C 68 % 1012,5 hPa 0,0 l/m 0 min 0 min 0 W/m 6,4 km/h (2 Bft) 97,87 %
11.03.2023 19:30 3,6 C 2,8 C -0,6 C 68 % 1012,5 hPa 0,0 l/m 0 min 0 min 0 W/m 6,4 km/h (2 Bft) 97,87 %
11.03.2023 19:32 3,6 C 2,8 C -0,6 C 69 % 1012,5 hPa 0,0 l/m 0 min 0 min 0 W/m 6,4 km/h (2 Bft) 97,83 %
11.03.2023 19:34 3,5 C 2,8 C -0,6 C 69 % 1012,5 hPa 0,0 l/m 0 min 0 min 0 W/m 6,4 km/h (2 Bft) 95,74 %
11.03.2023 19:36 3,5 C 2,8 C -0,6 C 69 % 1012,5 hPa 0,0 l/m 0 min 0 min 0 W/m 3,2 km/h (1 Bft) 97,87 %
11.03.2023 19:38 3,5 C 2,8 C -0,6 C 69 % 1012,6 hPa 0,0 l/m 0 min 0 min 0 W/m 0,0 km/h (0 Bft) 95,74 %
11.03.2023 19:40 3,4 C 2,8 C -0,6 C 70 % 1012,6 hPa 0,0 l/m 0 min 0 min 0 W/m 0,0 km/h (0 Bft) 97,14 %
11.03.2023 19:42 3,4 C 2,8 C -0,6 C 70 % 1012,6 hPa 0,0 l/m 0 min 0 min 0 W/m 0,0 km/h (0 Bft) 97,87 %
11.03.2023 19:44 3,4 C 2,2 C -0,6 C 70 % 1012,6 hPa 0,0 l/m 0 min 0 min 0 W/m 0,0 km/h (0 Bft) 100,00 %
11.03.2023 19:46 3,4 C 2,2 C -0,6 C 70 % 1012,6 hPa 0,0 l/m 0 min 0 min 0 W/m 0,0 km/h (0 Bft) 100,00 %
11.03.2023 19:48 3,4 C 2,2 C -0,6 C 70 % 1012,6 hPa 0,0 l/m 0 min 0 min 0 W/m 0,0 km/h (0 Bft) 97,87 %
11.03.2023 19:50 3,4 C 2,2 C -1,1 C 70 % 1012,6 hPa 0,0 l/m 0 min 0 min 0 W/m 0,0 km/h (0 Bft) 100,00 %
11.03.2023 19:52 3,4 C 2,2 C -1,1 C 71 % 1012,6 hPa 0,0 l/m 0 min 0 min 0 W/m 0,0 km/h (0 Bft) 97,92 %
11.03.2023 19:54 3,3 C 2,2 C -1,1 C 71 % 1012,6 hPa 0,0 l/m 0 min 0 min 0 W/m 0,0 km/h (0 Bft) 100,00 %
11.03.2023 19:56 3,3 C 2,2 C -1,1 C 71 % 1012,6 hPa 0,0 l/m 0 min 0 min 0 W/m 0,0 km/h (0 Bft) 100,00 %
11.03.2023 19:58 3,3 C 2,2 C -1,1 C 71 % 1012,7 hPa 0,0 l/m 0 min 0 min 0 W/m 0,0 km/h (0 Bft) 100,00 %
11.03.2023 20:00 3,3 C 2,2 C -1,1 C 71 % 1012,7 hPa 0,0 l/m 0 min 0 min 0 W/m 0,0 km/h (0 Bft) 97,87 %
11.03.2023 20:02 3,3 C 2,2 C -1,1 C 71 % 1012,7 hPa 0,0 l/m 0 min 0 min 0 W/m 0,0 km/h (0 Bft) 97,87 %
11.03.2023 20:04 3,3 C 2,2 C -1,1 C 71 % 1012,7 hPa 0,0 l/m 0 min 0 min 0 W/m 0,0 km/h (0 Bft) 100,00 %
11.03.2023 20:06 3,3 C 2,2 C -1,1 C 72 % 1012,7 hPa 0,0 l/m 0 min 0 min 0 W/m 0,0 km/h (0 Bft) 100,00 %
11.03.2023 20:08 3,2 C 2,2 C -1,1 C 72 % 1012,7 hPa 0,0 l/m 0 min 0 min 0 W/m 0,0 km/h (0 Bft) 100,00 %
11.03.2023 20:10 3,2 C 2,2 C -1,1 C 72 % 1012,7 hPa 0,0 l/m 0 min 0 min 0 W/m 0,0 km/h (0 Bft) 97,87 %
11.03.2023 20:12 3,2 C 2,2 C -1,1 C 72 % 1012,8 hPa 0,0 l/m 0 min 0 min 0 W/m 0,0 km/h (0 Bft) 100,00 %
11.03.2023 20:14 3,2 C 2,2 C -1,7 C 72 % 1012,8 hPa 0,0 l/m 0 min 0 min 0 W/m 0,0 km/h (0 Bft) 100,00 %
11.03.2023 20:16 3,1 C 1,7 C -1,7 C 72 % 1012,8 hPa 0,0 l/m 0 min 0 min 0 W/m 0,0 km/h (0 Bft) 100,00 %
11.03.2023 20:18 3,1 C 1,7 C -1,7 C 72 % 1012,8 hPa 0,0 l/m 0 min 0 min 0 W/m 0,0 km/h (0 Bft) 100,00 %
11.03.2023 20:20 3,1 C 1,7 C -1,7 C 72 % 1012,8 hPa 0,0 l/m 0 min 0 min 0 W/m 0,0 km/h (0 Bft) 100,00 %
11.03.2023 20:22 3,0 C 1,7 C -1,7 C 72 % 1012,8 hPa 0,0 l/m 0 min 0 min 0 W/m 0,0 km/h (0 Bft) 97,87 %
11.03.2023 20:24 3,0 C 1,7 C -1,7 C 72 % 1012,8 hPa 0,0 l/m 0 min 0 min 0 W/m 0,0 km/h (0 Bft) 100,00 %
11.03.2023 20:26 2,9 C 1,7 C -1,7 C 72 % 1012,8 hPa 0,0 l/m 0 min 0 min 0 W/m 0,0 km/h (0 Bft) 97,83 %
11.03.2023 20:28 2,9 C 1,7 C -1,7 C 72 % 1012,8 hPa 0,0 l/m 0 min 0 min 0 W/m 0,0 km/h (0 Bft) 97,87 %
11.03.2023 20:30 2,9 C 1,7 C -1,7 C 72 % 1012,9 hPa 0,0 l/m 0 min 0 min 0 W/m 0,0 km/h (0 Bft) 100,00 %
11.03.2023 20:32 2,9 C 1,7 C -1,7 C 73 % 1013,0 hPa 0,0 l/m 0 min 0 min 0 W/m 0,0 km/h (0 Bft) 95,74 %
11.03.2023 20:34 2,8 C 1,7 C -1,7 C 72 % 1013,0 hPa 0,0 l/m 0 min 0 min 0 W/m 0,0 km/h (0 Bft) 95,74 %
11.03.2023 20:36 2,8 C 1,7 C -1,7 C 72 % 1012,9 hPa 0,0 l/m 0 min 0 min 0 W/m 0,0 km/h (0 Bft) 95,74 %
11.03.2023 20:38 2,8 C 1,7 C -1,7 C 73 % 1012,9 hPa 0,0 l/m 0 min 0 min 0 W/m 0,0 km/h (0 Bft) 95,74 %
11.03.2023 20:40 2,8 C 1,7 C -1,7 C 73 % 1013,0 hPa 0,0 l/m 0 min 0 min 0 W/m 0,0 km/h (0 Bft) 95,65 %
11.03.2023 20:42 2,8 C 1,7 C -1,7 C 73 % 1012,9 hPa 0,0 l/m 0 min 0 min 0 W/m 0,0 km/h (0 Bft) 97,87 %
11.03.2023 20:44 2,7 C 1,7 C -1,7 C 73 % 1012,9 hPa 0,0 l/m 0 min 0 min 0 W/m 0,0 km/h (0 Bft) 97,87 %
11.03.2023 20:46 2,7 C 1,7 C -1,7 C 73 % 1012,9 hPa 0,0 l/m 0 min 0 min 0 W/m 0,0 km/h (0 Bft) 95,74 %
11.03.2023 20:48 2,7 C 1,7 C -1,7 C 73 % 1013,0 hPa 0,0 l/m 0 min 0 min 0 W/m 0,0 km/h (0 Bft) 95,74 %
11.03.2023 20:50 2,6 C 1,7 C -1,7 C 73 % 1013,0 hPa 0,0 l/m 0 min 0 min 0 W/m 0,0 km/h (0 Bft) 97,87 %
11.03.2023 20:52 2,6 C 1,7 C -1,7 C 73 % 1013,0 hPa 0,0 l/m 0 min 0 min 0 W/m 0,0 km/h (0 Bft) 94,29 %
11.03.2023 20:54 2,6 C 1,7 C -1,7 C 73 % 1013,0 hPa 0,0 l/m 0 min 0 min 0 W/m 0,0 km/h (0 Bft) 97,87 %
11.03.2023 20:56 2,6 C 1,7 C -1,7 C 73 % 1013,0 hPa 0,0 l/m 0 min 0 min 0 W/m 0,0 km/h (0 Bft) 91,30 %
11.03.2023 20:58 2,6 C 1,7 C -1,7 C 73 % 1013,0 hPa 0,0 l/m 0 min 0 min 0 W/m 0,0 km/h (0 Bft) 44,74 %
11.03.2023 21:00 2,6 C 1,7 C -1,7 C 73 % 1013,0 hPa 0,0 l/m 0 min 0 min 0 W/m 0,0 km/h (0 Bft) 96,36 %
11.03.2023 21:02 2,6 C 1,7 C -1,7 C 73 % 1013,0 hPa 0,0 l/m 0 min 0 min 0 W/m 0,0 km/h (0 Bft) 97,87 %
11.03.2023 21:04 2,5 C 1,7 C -1,7 C 73 % 1013,0 hPa 0,0 l/m 0 min 0 min 0 W/m 0,0 km/h (0 Bft) 95,74 %
11.03.2023 21:06 2,5 C 1,7 C -1,7 C 73 % 1013,0 hPa 0,0 l/m 0 min 0 min 0 W/m 0,0 km/h (0 Bft) 98,28 %
11.03.2023 21:08 2,5 C 1,7 C -1,7 C 73 % 1013,0 hPa 0,0 l/m 0 min 0 min 0 W/m 0,0 km/h (0 Bft) 97,14 %
11.03.2023 21:10 2,5 C 1,7 C -1,7 C 73 % 1013,0 hPa 0,0 l/m 0 min 0 min 0 W/m 0,0 km/h (0 Bft) 95,74 %
11.03.2023 21:12 2,5 C 1,7 C -1,7 C 74 % 1013,0 hPa 0,0 l/m 0 min 0 min 0 W/m 0,0 km/h (0 Bft) 97,87 %
11.03.2023 21:14 2,4 C 1,7 C -1,7 C 74 % 1013,0 hPa 0,0 l/m 0 min 0 min 0 W/m 0,0 km/h (0 Bft) 97,87 %
11.03.2023 21:16 2,4 C 1,7 C -1,7 C 74 % 1013,0 hPa 0,0 l/m 0 min 0 min 0 W/m 0,0 km/h (0 Bft) 95,74 %
11.03.2023 21:18 2,4 C 1,7 C -1,7 C 74 % 1013,0 hPa 0,0 l/m 0 min 0 min 0 W/m 0,0 km/h (0 Bft) 97,96 %
11.03.2023 21:20 2,4 C 1,1 C -1,7 C 74 % 1013,0 hPa 0,0 l/m 0 min 0 min 0 W/m 0,0 km/h (0 Bft) 97,92 %
11.03.2023 21:22 2,4 C 1,1 C -1,7 C 74 % 1013,0 hPa 0,0 l/m 0 min 0 min 0 W/m 0,0 km/h (0 Bft) 94,44 %
11.03.2023 21:24 2,4 C 1,1 C -1,7 C 74 % 1013,0 hPa 0,0 l/m 0 min 0 min 0 W/m 0,0 km/h (0 Bft) 100,00 %
11.03.2023 21:26 2,3 C 1,1 C -1,7 C 74 % 1013,0 hPa 0,0 l/m 0 min 0 min 0 W/m 0,0 km/h (0 Bft) 100,00 %
11.03.2023 21:28 2,3 C 1,1 C -1,7 C 74 % 1013,0 hPa 0,0 l/m 0 min 0 min 0 W/m 0,0 km/h (0 Bft) 94,29 %
11.03.2023 21:30 2,3 C 1,1 C -1,7 C 74 % 1013,0 hPa 0,0 l/m 0 min 0 min 0 W/m 0,0 km/h (0 Bft) 100,00 %
11.03.2023 21:32 2,3 C 1,1 C -1,7 C 74 % 1013,0 hPa 0,0 l/m 0 min 0 min 0 W/m 0,0 km/h (0 Bft) 100,00 %
11.03.2023 21:34 2,3 C 1,1 C -1,7 C 74 % 1013,0 hPa 0,0 l/m 0 min 0 min 0 W/m 0,0 km/h (0 Bft) 95,65 %
11.03.2023 21:36 2,2 C 1,1 C -1,7 C 75 % 1013,0 hPa 0,0 l/m 0 min 0 min 0 W/m 0,0 km/h (0 Bft) 97,87 %
11.03.2023 21:38 2,2 C 1,1 C -1,7 C 75 % 1013,0 hPa 0,0 l/m 0 min 0 min 0 W/m 0,0 km/h (0 Bft) 97,87 %
11.03.2023 21:40 2,2 C 1,1 C -1,7 C 75 % 1013,0 hPa 0,0 l/m 0 min 0 min 0 W/m 0,0 km/h (0 Bft) 97,87 %
11.03.2023 21:42 2,2 C 1,1 C -1,7 C 75 % 1013,0 hPa 0,0 l/m 0 min 0 min 0 W/m 0,0 km/h (0 Bft) 95,74 %
11.03.2023 21:44 2,2 C 1,1 C -1,7 C 75 % 1013,0 hPa 0,0 l/m 0 min 0 min 0 W/m 0,0 km/h (0 Bft) 52,17 %
11.03.2023 21:46 2,1 C 1,1 C -1,7 C 75 % 1013,0 hPa 0,0 l/m 0 min 0 min 0 W/m 0,0 km/h (0 Bft) 100,00 %
11.03.2023 21:48 2,1 C 1,1 C -1,7 C 76 % 1013,0 hPa 0,0 l/m 0 min 0 min 0 W/m 0,0 km/h (0 Bft) 95,74 %
11.03.2023 21:50 2,1 C 1,1 C -1,7 C 76 % 1013,0 hPa 0,0 l/m 0 min 0 min 0 W/m 0,0 km/h (0 Bft) 95,74 %
11.03.2023 21:52 2,1 C 1,1 C -1,7 C 76 % 1013,0 hPa 0,0 l/m 0 min 0 min 0 W/m 0,0 km/h (0 Bft) 97,83 %
11.03.2023 21:54 2,1 C 1,1 C -1,7 C 76 % 1013,0 hPa 0,0 l/m 0 min 0 min 0 W/m 0,0 km/h (0 Bft) 97,87 %
11.03.2023 21:56 2,1 C 1,1 C -1,7 C 76 % 1013,0 hPa 0,0 l/m 0 min 0 min 0 W/m 0,0 km/h (0 Bft) 98,15 %
11.03.2023 21:58 2,1 C 1,1 C -1,7 C 76 % 1012,9 hPa 0,0 l/m 0 min 0 min 0 W/m 0,0 km/h (0 Bft) 95,65 %
11.03.2023 22:00 2,1 C 1,1 C -1,7 C 76 % 1012,9 hPa 0,0 l/m 0 min 0 min 0 W/m 0,0 km/h (0 Bft) 97,87 %
11.03.2023 22:02 2,0 C 1,1 C -1,7 C 76 % 1013,0 hPa 0,0 l/m 0 min 0 min 0 W/m 0,0 km/h (0 Bft) 93,62 %
11.03.2023 22:04 2,0 C 1,1 C -1,7 C 76 % 1013,0 hPa 0,0 l/m 0 min 0 min 0 W/m 0,0 km/h (0 Bft) 97,87 %
11.03.2023 22:06 2,0 C 1,1 C -1,7 C 76 % 1012,9 hPa 0,0 l/m 0 min 0 min 0 W/m 0,0 km/h (0 Bft) 96,67 %
11.03.2023 22:08 2,0 C 1,1 C -1,7 C 77 % 1012,9 hPa 0,0 l/m 0 min 0 min 0 W/m 0,0 km/h (0 Bft) 97,14 %
11.03.2023 22:10 1,9 C 1,1 C -1,7 C 77 % 1012,9 hPa 0,0 l/m 0 min 0 min 0 W/m 0,0 km/h (0 Bft) 97,87 %
11.03.2023 22:12 1,9 C 1,1 C -1,7 C 77 % 1012,9 hPa 0,0 l/m 0 min 0 min 0 W/m 0,0 km/h (0 Bft) 97,83 %
11.03.2023 22:14 1,9 C 1,1 C -1,7 C 77 % 1012,9 hPa 0,0 l/m 0 min 0 min 0 W/m 0,0 km/h (0 Bft) 97,87 %
11.03.2023 22:16 1,9 C 1,1 C -1,7 C 77 % 1012,9 hPa 0,0 l/m 0 min 0 min 0 W/m 0,0 km/h (0 Bft) 95,74 %
11.03.2023 22:18 1,9 C 1,1 C -1,7 C 77 % 1012,9 hPa 0,0 l/m 0 min 0 min 0 W/m 0,0 km/h (0 Bft) 95,83 %
11.03.2023 22:20 1,9 C 1,1 C -1,7 C 77 % 1012,9 hPa 0,0 l/m 0 min 0 min 0 W/m 0,0 km/h (0 Bft) 94,00 %
11.03.2023 22:22 1,9 C 1,1 C -1,7 C 77 % 1012,9 hPa 0,0 l/m 0 min 0 min 0 W/m 0,0 km/h (0 Bft) 93,62 %
11.03.2023 22:24 1,9 C 1,1 C -1,7 C 77 % 1012,9 hPa 0,0 l/m 0 min 0 min 0 W/m 0,0 km/h (0 Bft) 95,65 %
11.03.2023 22:26 1,9 C 1,1 C -1,7 C 77 % 1012,9 hPa 0,0 l/m 0 min 0 min 0 W/m 0,0 km/h (0 Bft) 95,74 %
11.03.2023 22:28 1,9 C 1,1 C -1,7 C 77 % 1012,9 hPa 0,0 l/m 0 min 0 min 0 W/m 0,0 km/h (0 Bft) 95,74 %
11.03.2023 22:30 1,9 C 1,1 C -1,7 C 77 % 1012,9 hPa 0,0 l/m 0 min 0 min 0 W/m 0,0 km/h (0 Bft) 93,62 %
11.03.2023 22:32 1,9 C 1,1 C -1,7 C 77 % 1012,9 hPa 0,0 l/m 0 min 0 min 0 W/m 0,0 km/h (0 Bft) 95,74 %
11.03.2023 22:34 1,9 C 1,1 C -1,7 C 77 % 1012,8 hPa 0,0 l/m 0 min 0 min 0 W/m 0,0 km/h (0 Bft) 95,74 %
11.03.2023 22:36 1,9 C 1,1 C -1,7 C 77 % 1012,8 hPa 0,0 l/m 0 min 0 min 0 W/m 0,0 km/h (0 Bft) 93,48 %
11.03.2023 22:38 1,9 C 1,1 C -1,7 C 77 % 1012,8 hPa 0,0 l/m 0 min 0 min 0 W/m 0,0 km/h (0 Bft) 95,74 %
11.03.2023 22:40 1,9 C 1,1 C -1,7 C 77 % 1012,8 hPa 0,0 l/m 0 min 0 min 0 W/m 0,0 km/h (0 Bft) 95,74 %
11.03.2023 22:42 1,8 C 1,1 C -1,7 C 77 % 1012,7 hPa 0,0 l/m 0 min 0 min 0 W/m 0,0 km/h (0 Bft) 93,62 %
11.03.2023 22:44 1,8 C 1,1 C -1,7 C 77 % 1012,8 hPa 0,0 l/m 0 min 0 min 0 W/m 0,0 km/h (0 Bft) 95,74 %
11.03.2023 22:46 1,8 C 1,1 C -1,7 C 77 % 1012,8 hPa 0,0 l/m 0 min 0 min 0 W/m 0,0 km/h (0 Bft) 95,83 %
11.03.2023 22:48 1,8 C 1,1 C -1,7 C 77 % 1012,7 hPa 0,0 l/m 0 min 0 min 0 W/m 0,0 km/h (0 Bft) 97,87 %
11.03.2023 22:50 1,8 C 1,1 C -1,7 C 77 % 1012,7 hPa 0,0 l/m 0 min 0 min 0 W/m 0,0 km/h (0 Bft) 97,87 %
11.03.2023 22:52 1,8 C 1,1 C -1,7 C 77 % 1012,8 hPa 0,0 l/m 0 min 0 min 0 W/m 0,0 km/h (0 Bft) 97,14 %
11.03.2023 22:54 1,8 C 1,1 C -1,7 C 77 % 1012,7 hPa 0,0 l/m 0 min 0 min 0 W/m 0,0 km/h (0 Bft) 97,87 %
11.03.2023 22:56 1,8 C 1,1 C -1,7 C 77 % 1012,7 hPa 0,0 l/m 0 min 0 min 0 W/m 0,0 km/h (0 Bft) 97,87 %
11.03.2023 22:58 1,8 C 1,1 C -1,7 C 77 % 1012,7 hPa 0,0 l/m 0 min 0 min 0 W/m 0,0 km/h (0 Bft) 97,83 %
11.03.2023 23:00 1,8 C 1,1 C -1,7 C 77 % 1012,7 hPa 0,0 l/m 0 min 0 min 0 W/m 0,0 km/h (0 Bft) 96,61 %
11.03.2023 23:02 1,8 C 1,1 C -1,7 C 77 % 1012,8 hPa 0,0 l/m 0 min 0 min 0 W/m 0,0 km/h (0 Bft) 100,00 %
11.03.2023 23:04 1,8 C 1,1 C -1,7 C 78 % 1012,8 hPa 0,0 l/m 0 min 0 min 0 W/m 0,0 km/h (0 Bft) 100,00 %
11.03.2023 23:06 1,8 C 1,1 C -1,7 C 78 % 1012,8 hPa 0,0 l/m 0 min 0 min 0 W/m 0,0 km/h (0 Bft) 100,00 %
11.03.2023 23:08 1,8 C 1,1 C -1,7 C 78 % 1012,8 hPa 0,0 l/m 0 min 0 min 0 W/m 0,0 km/h (0 Bft) 100,00 %
11.03.2023 23:10 1,8 C 1,1 C -1,7 C 78 % 1012,8 hPa 0,0 l/m 0 min 0 min 0 W/m 0,0 km/h (0 Bft) 100,00 %
11.03.2023 23:12 1,8 C 1,1 C -1,7 C 78 % 1012,8 hPa 0,0 l/m 0 min 0 min 0 W/m 0,0 km/h (0 Bft) 100,00 %
11.03.2023 23:14 1,8 C 1,1 C -1,7 C 78 % 1012,8 hPa 0,0 l/m 0 min 0 min 0 W/m 0,0 km/h (0 Bft) 100,00 %
11.03.2023 23:16 1,8 C 1,1 C -1,7 C 78 % 1012,8 hPa 0,0 l/m 0 min 0 min 0 W/m 0,0 km/h (0 Bft) 100,00 %
11.03.2023 23:18 1,8 C 1,1 C -1,7 C 78 % 1012,9 hPa 0,0 l/m 0 min 0 min 0 W/m 0,0 km/h (0 Bft) 100,00 %
11.03.2023 23:20 1,8 C 1,1 C -1,7 C 78 % 1012,9 hPa 0,0 l/m 0 min 0 min 0 W/m 0,0 km/h (0 Bft) 100,00 %
11.03.2023 23:22 1,8 C 1,1 C -1,7 C 78 % 1012,9 hPa 0,0 l/m 0 min 0 min 0 W/m 0,0 km/h (0 Bft) 97,87 %
11.03.2023 23:24 1,8 C 1,1 C -1,7 C 78 % 1012,9 hPa 0,0 l/m 0 min 0 min 0 W/m 0,0 km/h (0 Bft) 97,83 %
11.03.2023 23:26 1,8 C 1,1 C -1,7 C 78 % 1012,9 hPa 0,0 l/m 0 min 0 min 0 W/m 0,0 km/h (0 Bft) 100,00 %
11.03.2023 23:28 1,8 C 1,1 C -1,7 C 78 % 1012,9 hPa 0,0 l/m 0 min 0 min 0 W/m 0,0 km/h (0 Bft) 100,00 %
11.03.2023 23:30 1,8 C 1,1 C -1,7 C 78 % 1012,9 hPa 0,0 l/m 0 min 0 min 0 W/m 0,0 km/h (0 Bft) 100,00 %
11.03.2023 23:32 1,8 C 1,1 C -1,7 C 78 % 1012,8 hPa 0,0 l/m 0 min 0 min 0 W/m 0,0 km/h (0 Bft) 100,00 %
11.03.2023 23:34 1,8 C 1,1 C -1,7 C 78 % 1012,8 hPa 0,0 l/m 0 min 0 min 0 W/m 0,0 km/h (0 Bft) 97,87 %
11.03.2023 23:36 1,8 C 1,1 C -1,7 C 78 % 1012,8 hPa 0,0 l/m 0 min 0 min 0 W/m 0,0 km/h (0 Bft) 100,00 %
11.03.2023 23:38 1,8 C 1,1 C -1,7 C 78 % 1012,8 hPa 0,0 l/m 0 min 0 min 0 W/m 0,0 km/h (0 Bft) 100,00 %
11.03.2023 23:40 1,8 C 1,1 C -1,7 C 78 % 1012,8 hPa 0,0 l/m 0 min 0 min 0 W/m 0,0 km/h (0 Bft) 98,00 %
11.03.2023 23:42 1,8 C 1,1 C -1,7 C 78 % 1012,8 hPa 0,0 l/m 0 min 0 min 0 W/m 0,0 km/h (0 Bft) 100,00 %
11.03.2023 23:44 1,8 C 1,1 C -1,7 C 78 % 1012,8 hPa 0,0 l/m 0 min 0 min 0 W/m 0,0 km/h (0 Bft) 100,00 %
11.03.2023 23:46 1,8 C 1,1 C -1,7 C 78 % 1012,7 hPa 0,0 l/m 0 min 0 min 0 W/m 0,0 km/h (0 Bft) 100,00 %
11.03.2023 23:48 1,8 C 1,1 C -1,7 C 78 % 1012,8 hPa 0,0 l/m 0 min 0 min 0 W/m 0,0 km/h (0 Bft) 97,87 %
11.03.2023 23:50 1,8 C 1,1 C -1,7 C 78 % 1012,8 hPa 0,0 l/m 0 min 0 min 0 W/m 0,0 km/h (0 Bft) 100,00 %
11.03.2023 23:52 1,8 C 1,1 C -1,7 C 78 % 1012,8 hPa 0,0 l/m 0 min 0 min 0 W/m 0,0 km/h (0 Bft) 100,00 %
11.03.2023 23:54 1,8 C 1,1 C -1,7 C 78 % 1012,8 hPa 0,0 l/m 0 min 0 min 0 W/m 0,0 km/h (0 Bft) 100,00 %
11.03.2023 23:56 1,8 C 1,1 C -1,7 C 78 % 1012,8 hPa 0,0 l/m 0 min 0 min 0 W/m 0,0 km/h (0 Bft) 97,87 %
11.03.2023 23:58 1,8 C 1,1 C -1,7 C 78 % 1012,8 hPa 0,0 l/m 0 min 0 min 0 W/m 0,0 km/h (0 Bft) 100,00 %
_ Min-Zeit 05:08 04:14 04:22 15:26 00:00 - - - - 02:30 19:20
Minimum _ -0,6 C -1,1 C -2,8 C 53 % 1005,6 hPa - - - - 0,0 km/h (0 Bft) 38,89 %
_ Max-Zeit 15:48 10:46 10:46 00:00 20:32 00:00 18:12 00:42 11:04 00:56 00:00
Maximum _ 7,8 C 13,9 C 9,4 C 94 % 1013,0 hPa 0,0 l/m 4 min 2 min 696 W/m 29,0 km/h
N-NW (5 Bft)
100,00 %
Durchschnitt _ 2,9 C 3,7 C -0,0 C 76 % 1010,7 hPa #0,0 l/m #7:46 h #2 min. 271 W/m 5,5 km/h (1 Bft) 95,73 %
© 2023 W. Hausmann